Air Quality Table

TIMESTAMP NO2 O3 PM2.5 TEMP HUM AIRPRES WS WD NO
2023-02-03 21:00 65.97 µg/m3 4.89 µg/m3 23.49 µg/m3 10.38 °C N/A 1,015.68 mbar 0.5 m/s 290.79 Deg 17.15 µg/m3
2023-02-03 20:00 70.95 µg/m3 1.83 µg/m3 14.26 µg/m3 11.06 °C N/A 1,015.57 mbar 0.48 m/s 283.49 Deg 21.95 µg/m3
2023-02-03 19:00 57.52 µg/m3 21.19 µg/m3 7.7 µg/m3 12.56 °C N/A 1,015.64 mbar 0.45 m/s 223.89 Deg 5 µg/m3
2023-02-03 18:00 30.13 µg/m3 61.66 µg/m3 4.77 µg/m3 13.7 °C N/A 1,015.32 mbar 0.89 m/s 145.02 Deg 1.43 µg/m3
2023-02-03 17:00 11.44 µg/m3 83.59 µg/m3 4.6 µg/m3 14.75 °C N/A 1,014.90 mbar 1.43 m/s 222.5 Deg 1.26 µg/m3
2023-02-03 16:00 9.97 µg/m3 86.38 µg/m3 6.3 µg/m3 15.01 °C N/A 1,014.64 mbar 1.87 m/s 212.33 Deg 2.36 µg/m3
2023-02-03 15:00 9.61 µg/m3 87.28 µg/m3 7.53 µg/m3 15.3 °C N/A 1,014.33 mbar 2.09 m/s 196.9 Deg 2.05 µg/m3
2023-02-03 14:00 10.21 µg/m3 83.78 µg/m3 6.04 µg/m3 15.55 °C N/A 1,014.50 mbar 1.86 m/s 187.17 Deg 2.34 µg/m3
2023-02-03 13:00 13.27 µg/m3 77.22 µg/m3 4.32 µg/m3 15.91 °C N/A 1,014.91 mbar 1.94 m/s 204.28 Deg 4.36 µg/m3
2023-02-03 12:00 9.19 µg/m3 79.52 µg/m3 0.82 µg/m3 15.51 °C N/A 1,015.66 mbar 2.04 m/s 201.3 Deg 2.32 µg/m3
2023-02-03 11:00 18.36 µg/m3 67.88 µg/m3 -0.22 µg/m3 15.31 °C N/A 1,015.89 mbar 1.62 m/s 201.47 Deg 4.36 µg/m3
2023-02-03 10:00 22.15 µg/m3 61.77 µg/m3 -0.22 µg/m3 14.15 °C N/A 1,015.67 mbar 0.61 m/s 293.95 Deg 5.6 µg/m3
2023-02-03 09:00 47.26 µg/m3 2.23 µg/m3 12.2 µg/m3 11.55 °C N/A 1,015.14 mbar 0.21 m/s 320.58 Deg 137.83 µg/m3
2023-02-03 08:00 33.12 µg/m3 1.8 µg/m3 9.97 µg/m3 9.75 °C N/A 1,014.56 mbar 0.52 m/s 306.89 Deg 98.03 µg/m3
2023-02-03 07:00 26.74 µg/m3 6.47 µg/m3 4.28 µg/m3 8.99 °C N/A 1,014.12 mbar 0.65 m/s 293.22 Deg 54.79 µg/m3
2023-02-03 06:00 22.98 µg/m3 41.47 µg/m3 1.57 µg/m3 9.39 °C N/A 1,013.83 mbar 0.44 m/s 304.25 Deg 43.66 µg/m3
2023-02-03 05:00 23.15 µg/m3 40.26 µg/m3 0.36 µg/m3 9.3 °C N/A 1,013.48 mbar 0.59 m/s 295.14 Deg 43.3 µg/m3
2023-02-03 04:00 23.82 µg/m3 47.61 µg/m3 1.14 µg/m3 10.2 °C N/A 1,013.66 mbar 0.5 m/s 297.43 Deg 44.61 µg/m3
2023-02-03 03:00 22.99 µg/m3 49.04 µg/m3 1.61 µg/m3 10.92 °C N/A 1,013.58 mbar 0.56 m/s 292.15 Deg 46.62 µg/m3
2023-02-03 02:00 24.04 µg/m3 47.08 µg/m3 2.54 µg/m3 10.67 °C N/A 1,013.67 mbar 0.46 m/s 297.89 Deg 46.59 µg/m3
2023-02-03 01:00 24.38 µg/m3 56.08 µg/m3 2.39 µg/m3 11.16 °C N/A 1,013.88 mbar 0.35 m/s 310.83 Deg 48.76 µg/m3
2023-02-03 00:00 25.02 µg/m3 50.37 µg/m3 4.35 µg/m3 11.39 °C N/A 1,013.93 mbar 0.5 m/s 290.95 Deg 50.08 µg/m3
2023-02-02 23:00 26.87 µg/m3 51.34 µg/m3 4.41 µg/m3 11.39 °C N/A 1,013.77 mbar 0.55 m/s 295.29 Deg 51.18 µg/m3
2023-02-02 22:00 26.59 µg/m3 42.17 µg/m3 8.85 µg/m3 11.06 °C N/A 1,013.52 mbar 0.35 m/s 289 Deg 53.49 µg/m3
2023-02-02 21:00 26.56 µg/m3 44.32 µg/m3 8.48 µg/m3 11.39 °C N/A 1,013.30 mbar 0.36 m/s 290.27 Deg 55.65 µg/m3
2023-02-02 20:00 27.75 µg/m3 42.18 µg/m3 8.1 µg/m3 11.66 °C N/A 1,013.01 mbar 0.39 m/s 316.25 Deg 56.73 µg/m3
2023-02-02 19:00 28.2 µg/m3 42.94 µg/m3 4.69 µg/m3 12.16 °C N/A 1,012.65 mbar 0.31 m/s 297.04 Deg 56.95 µg/m3
2023-02-02 18:00 30.41 µg/m3 50.01 µg/m3 2.31 µg/m3 12.97 °C N/A 1,012.13 mbar 0.52 m/s 300.74 Deg 54.76 µg/m3
2023-02-02 17:00 33.04 µg/m3 67.26 µg/m3 1.46 µg/m3 13.78 °C N/A 1,011.56 mbar 1.07 m/s 264.85 Deg 50.71 µg/m3
2023-02-02 16:00 32.66 µg/m3 66.52 µg/m3 0.93 µg/m3 13.16 °C N/A 1,011.46 mbar 0.98 m/s 171.57 Deg 51.29 µg/m3
2023-02-02 15:00 32.74 µg/m3 65.98 µg/m3 1.95 µg/m3 12.66 °C N/A 1,011.57 mbar 0.93 m/s 223.41 Deg 53.94 µg/m3
2023-02-02 14:00 32.3 µg/m3 72.83 µg/m3 1.76 µg/m3 13.52 °C N/A 1,011.83 mbar 1.52 m/s 296.72 Deg 56.78 µg/m3
2023-02-02 13:00 33.93 µg/m3 75.02 µg/m3 2.01 µg/m3 14.33 °C N/A 1,012.29 mbar 1.41 m/s 308.18 Deg 54.24 µg/m3
2023-02-02 12:00 34.53 µg/m3 70.62 µg/m3 1.97 µg/m3 14.22 °C N/A 1,013.02 mbar 1.47 m/s 251.25 Deg 56.08 µg/m3
2023-02-02 11:00 34.11 µg/m3 69.57 µg/m3 4.26 µg/m3 13.18 °C N/A 1,013.22 mbar 1.47 m/s 315.91 Deg 58.63 µg/m3
2023-02-02 10:00 35.33 µg/m3 44.7 µg/m3 3.07 µg/m3 12.59 °C N/A 1,012.92 mbar 0.81 m/s 170.41 Deg 58.67 µg/m3
2023-02-02 09:00 36.25 µg/m3 59.51 µg/m3 2.1 µg/m3 13.34 °C N/A 1,012.36 mbar 0.71 m/s 253.5 Deg 43.59 µg/m3
2023-02-02 08:00 18.08 µg/m3 56.88 µg/m3 2.31 µg/m3 12.97 °C N/A 1,011.99 mbar 1.39 m/s 310.48 Deg 10.74 µg/m3
2023-02-02 07:00 14.29 µg/m3 69.85 µg/m3 2.03 µg/m3 12.89 °C N/A 1,011.77 mbar 1.4 m/s 310.16 Deg 0.27 µg/m3
2023-02-02 06:00 7.06 µg/m3 69.27 µg/m3 1.46 µg/m3 12.68 °C N/A 1,011.62 mbar 1.01 m/s 290.88 Deg 0.19 µg/m3
2023-02-02 05:00 5.54 µg/m3 69.92 µg/m3 1.44 µg/m3 12.11 °C N/A 1,011.66 mbar 0.97 m/s 296.38 Deg 0.22 µg/m3
2023-02-02 04:00 7.04 µg/m3 67.48 µg/m3 1.1 µg/m3 11.9 °C N/A 1,012.07 mbar 0.54 m/s 283.91 Deg 0.16 µg/m3
2023-02-02 03:00 3.25 µg/m3 75.69 µg/m3 2.44 µg/m3 11.96 °C N/A 1,012.67 mbar 0.77 m/s 294.09 Deg 0.19 µg/m3
2023-02-02 02:00 4.43 µg/m3 71.88 µg/m3 3.31 µg/m3 11.59 °C N/A 1,013.09 mbar 0.62 m/s 298.16 Deg 0.19 µg/m3
2023-02-02 01:00 4.81 µg/m3 70.78 µg/m3 3.24 µg/m3 10.6 °C N/A 1,013.55 mbar 0.96 m/s 288.35 Deg 0.13 µg/m3
2023-02-02 00:00 9.17 µg/m3 64.14 µg/m3 4.26 µg/m3 10.41 °C N/A 1,014.02 mbar 0.65 m/s 288.42 Deg 0.2 µg/m3
2023-02-01 23:00 8.57 µg/m3 64.73 µg/m3 4.37 µg/m3 10.37 °C N/A 1,014.01 mbar 0.63 m/s 290.43 Deg 0.22 µg/m3
2023-02-01 22:00 13.62 µg/m3 62.52 µg/m3 4.86 µg/m3 10.61 °C N/A 1,013.93 mbar 0.54 m/s 294.79 Deg 0.29 µg/m3
2023-02-01 21:00 30.35 µg/m3 44.19 µg/m3 7.4 µg/m3 10.45 °C N/A 1,014.14 mbar 0.56 m/s 289.88 Deg 0.94 µg/m3
2023-02-01 20:00 58.93 µg/m3 16.03 µg/m3 7.49 µg/m3 10.19 °C N/A 1,014.29 mbar 0.52 m/s 286.7 Deg 5.75 µg/m3
2023-02-01 19:00 43.12 µg/m3 37.56 µg/m3 6.55 µg/m3 11.12 °C N/A 1,014.17 mbar 0.52 m/s 281.62 Deg 2.17 µg/m3
2023-02-01 18:00 14.36 µg/m3 76.75 µg/m3 5.62 µg/m3 12.49 °C N/A 1,013.74 mbar 0.52 m/s 307.49 Deg 0.26 µg/m3
2023-02-01 17:00 9.98 µg/m3 85.55 µg/m3 4.43 µg/m3 14.06 °C N/A 1,013.25 mbar 1.2 m/s 299.37 Deg 0.68 µg/m3
2023-02-01 16:00 7.79 µg/m3 87.72 µg/m3 3.48 µg/m3 15.02 °C N/A 1,013.12 mbar 1.17 m/s 281.9 Deg 1.29 µg/m3
2023-02-01 15:00 9.07 µg/m3 86.58 µg/m3 3.33 µg/m3 15.23 °C N/A 1,013.14 mbar 1.22 m/s 273.05 Deg 1.79 µg/m3
2023-02-01 14:00 7.5 µg/m3 85.53 µg/m3 8 µg/m3 15.02 °C N/A 1,013.22 mbar 1.23 m/s 193.98 Deg 1.67 µg/m3
2023-02-01 13:00 14.53 µg/m3 76.65 µg/m3 6.62 µg/m3 14.69 °C N/A 1,013.83 mbar 1.29 m/s 218.8 Deg 4.11 µg/m3
2023-02-01 12:00 16.62 µg/m3 71 µg/m3 3.73 µg/m3 14.7 °C N/A 1,014.53 mbar 1.28 m/s 231.45 Deg 4.78 µg/m3
2023-02-01 11:00 15.99 µg/m3 69.6 µg/m3 3.92 µg/m3 14.44 °C N/A 1,014.90 mbar 1.01 m/s 261.03 Deg 4.34 µg/m3
2023-02-01 10:00 15.94 µg/m3 68.68 µg/m3 23.17 µg/m3 13.93 °C N/A 1,014.68 mbar 0.71 m/s 267.68 Deg 4.15 µg/m3
2023-02-01 09:00 62.81 µg/m3 17.16 µg/m3 18.86 µg/m3 11.95 °C N/A 1,014.23 mbar 0.46 m/s 233.94 Deg 60.99 µg/m3
2023-02-01 08:00 73.1 µg/m3 3.3 µg/m3 8.89 µg/m3 8.98 °C N/A 1,013.87 mbar 0.44 m/s 306.95 Deg 65.06 µg/m3
2023-02-01 07:00 41.67 µg/m3 29.87 µg/m3 4.64 µg/m3 8.52 °C N/A 1,013.37 mbar 0.41 m/s 309.59 Deg 10.24 µg/m3
2023-02-01 06:00 8.77 µg/m3 61.33 µg/m3 3.75 µg/m3 8.73 °C N/A 1,012.90 mbar 0.49 m/s 318.14 Deg 0.22 µg/m3
2023-02-01 05:00 2.74 µg/m3 64.24 µg/m3 4.77 µg/m3 9.18 °C N/A 1,012.54 mbar 0.45 m/s 323.61 Deg 0.15 µg/m3
2023-02-01 04:00 4.64 µg/m3 61.71 µg/m3 4.69 µg/m3 9.42 °C N/A 1,012.16 mbar 0.54 m/s 327.02 Deg 0.17 µg/m3
2023-02-01 03:00 8.11 µg/m3 54.86 µg/m3 3.39 µg/m3 9.78 °C N/A 1,012.11 mbar 0.53 m/s 316.89 Deg 0.15 µg/m3
2023-02-01 02:00 4.18 µg/m3 71.26 µg/m3 2.44 µg/m3 11.06 °C N/A 1,011.92 mbar 0.79 m/s 103.96 Deg 0.09 µg/m3
2023-02-01 01:00 1.5 µg/m3 79.06 µg/m3 2.69 µg/m3 11.69 °C N/A 1,011.67 mbar 1.18 m/s 103.24 Deg 0.09 µg/m3
2023-02-01 00:00 1.55 µg/m3 81.41 µg/m3 3.35 µg/m3 12.37 °C N/A 1,011.42 mbar 2.03 m/s 35.75 Deg 0.07 µg/m3
2023-01-31 23:00 1.71 µg/m3 80.4 µg/m3 3.65 µg/m3 12.59 °C N/A 1,011.01 mbar 2.09 m/s 22.25 Deg 0.08 µg/m3
2023-01-31 22:00 2.23 µg/m3 78.44 µg/m3 3.05 µg/m3 12.82 °C N/A 1,010.57 mbar 1.81 m/s 183.14 Deg 0.11 µg/m3
2023-01-31 21:00 2.68 µg/m3 75.81 µg/m3 3.41 µg/m3 12.62 °C N/A 1,010.06 mbar 1.54 m/s 257.05 Deg 0.15 µg/m3
2023-01-31 20:00 3.86 µg/m3 75.25 µg/m3 2.78 µg/m3 12.72 °C N/A 1,009.64 mbar 1.6 m/s 249.6 Deg 0.15 µg/m3
2023-01-31 19:00 4.11 µg/m3 77.62 µg/m3 3.39 µg/m3 12.65 °C N/A 1,009.39 mbar 1.49 m/s 348.11 Deg 0.2 µg/m3
2023-01-31 18:00 5.58 µg/m3 76.21 µg/m3 3.69 µg/m3 13.06 °C N/A 1,008.91 mbar 1.72 m/s 348.27 Deg 0.23 µg/m3
2023-01-31 17:00 3.8 µg/m3 79.62 µg/m3 3.56 µg/m3 14.09 °C N/A 1,008.13 mbar 2.2 m/s 262.52 Deg 0.37 µg/m3
2023-01-31 16:00 3.54 µg/m3 80.87 µg/m3 4.41 µg/m3 14.49 °C N/A 1,007.75 mbar 2.79 m/s 180.87 Deg 0.67 µg/m3
2023-01-31 15:00 6.51 µg/m3 78.62 µg/m3 4.45 µg/m3 14.2 °C N/A 1,007.74 mbar 2.31 m/s 334.88 Deg 1.33 µg/m3
2023-01-31 14:00 4.61 µg/m3 79.04 µg/m3 5.07 µg/m3 14.25 °C N/A 1,008.07 mbar 2.22 m/s 332.58 Deg 3.93 µg/m3
2023-01-31 13:00 3.05 µg/m3 83.9 µg/m3 7.47 µg/m3 15.18 °C N/A 1,008.19 mbar 2.87 m/s 253.88 Deg 0.8 µg/m3
2023-01-31 12:00 3.59 µg/m3 81.02 µg/m3 8.19 µg/m3 14.95 °C N/A 1,008.80 mbar 2.74 m/s 258.32 Deg 0.93 µg/m3
2023-01-31 11:00 2.95 µg/m3 80.11 µg/m3 7.61 µg/m3 14.52 °C N/A 1,009.12 mbar 2.76 m/s 264.77 Deg 0.76 µg/m3
2023-01-31 10:00 4.73 µg/m3 76.33 µg/m3 6.09 µg/m3 14.02 °C N/A 1,009.03 mbar 2.39 m/s 339.15 Deg 1.02 µg/m3
2023-01-31 09:00 7.41 µg/m3 72.46 µg/m3 4.56 µg/m3 13.48 °C N/A 1,008.60 mbar 2.14 m/s 345.28 Deg 1.12 µg/m3
2023-01-31 08:00 8.67 µg/m3 73.03 µg/m3 2.16 µg/m3 12.43 °C N/A 1,008.48 mbar 1.75 m/s 339.6 Deg 0.75 µg/m3
2023-01-31 07:00 7.06 µg/m3 75.98 µg/m3 2.12 µg/m3 12.28 °C N/A 1,008.20 mbar 2.23 m/s 336.65 Deg 0.33 µg/m3
2023-01-31 06:00 2.32 µg/m3 79.63 µg/m3 0.99 µg/m3 12.26 °C N/A 1,008.14 mbar 1.75 m/s 335.49 Deg 0.09 µg/m3
2023-01-31 05:00 1.99 µg/m3 75.43 µg/m3 1.18 µg/m3 11.19 °C N/A 1,008.38 mbar 0.87 m/s 327.68 Deg 0.1 µg/m3
2023-01-31 04:00 1.9 µg/m3 74.89 µg/m3 1.65 µg/m3 11.37 °C N/A 1,008.67 mbar 1 m/s 329.23 Deg 0.11 µg/m3
2023-01-31 03:00 1.42 µg/m3 75.63 µg/m3 1.61 µg/m3 11.18 °C N/A 1,009.08 mbar 0.9 m/s 333.88 Deg 0.09 µg/m3
2023-01-31 02:00 1.21 µg/m3 77.03 µg/m3 1.37 µg/m3 11.29 °C N/A 1,009.46 mbar 1.45 m/s 339.47 Deg 0.09 µg/m3
2023-01-31 01:00 2.21 µg/m3 73.14 µg/m3 1.63 µg/m3 11.35 °C N/A 1,009.75 mbar 1.12 m/s 333.25 Deg 0.1 µg/m3
2023-01-31 00:00 2.83 µg/m3 73.39 µg/m3 2.82 µg/m3 11.64 °C N/A 1,009.79 mbar 1.27 m/s 339.07 Deg 0.13 µg/m3
2023-01-30 23:00 2.43 µg/m3 73.35 µg/m3 4.64 µg/m3 11.69 °C N/A 1,009.62 mbar 1.26 m/s 347.92 Deg 0.14 µg/m3
2023-01-30 22:00 3.45 µg/m3 71.17 µg/m3 5.45 µg/m3 11.47 °C N/A 1,009.36 mbar 0.71 m/s 321.47 Deg 0.24 µg/m3
2023-01-30 21:00 7.4 µg/m3 64.96 µg/m3 4.98 µg/m3 11.21 °C N/A 1,009.45 mbar 0.66 m/s 301.58 Deg 0.22 µg/m3
2023-01-30 20:00 12.88 µg/m3 57.74 µg/m3 6.32 µg/m3 11 °C N/A 1,009.36 mbar 0.56 m/s 308.54 Deg 0.32 µg/m3
2023-01-30 19:00 16.65 µg/m3 54.06 µg/m3 6.07 µg/m3 11.24 °C N/A 1,009.21 mbar 0.51 m/s 299.8 Deg 0.45 µg/m3
2023-01-30 18:00 16.58 µg/m3 56.39 µg/m3 5.05 µg/m3 12.1 °C N/A 1,008.87 mbar 0.4 m/s 310.95 Deg 0.58 µg/m3
2023-01-30 17:00 8.6 µg/m3 72.53 µg/m3 4.22 µg/m3 13.51 °C N/A 1,008.69 mbar 1.11 m/s 258.3 Deg 0.56 µg/m3
2023-01-30 16:00 7.12 µg/m3 75.54 µg/m3 4.54 µg/m3 13.77 °C N/A 1,008.37 mbar 1.98 m/s 97.98 Deg 1.01 µg/m3
2023-01-30 15:00 6.26 µg/m3 76.75 µg/m3 5.22 µg/m3 14.32 °C N/A 1,008.10 mbar 2.2 m/s 99.85 Deg 1.01 µg/m3
2023-01-30 14:00 5.47 µg/m3 77.32 µg/m3 4.49 µg/m3 15.62 °C N/A 1,008.13 mbar 1.41 m/s 325.61 Deg 1.26 µg/m3
2023-01-30 13:00 5.19 µg/m3 77.45 µg/m3 5.34 µg/m3 15.22 °C N/A 1,008.68 mbar 1.2 m/s 337.02 Deg 1.26 µg/m3
2023-01-30 12:00 6.53 µg/m3 74.39 µg/m3 4.13 µg/m3 14.47 °C N/A 1,009.36 mbar 1.28 m/s 170.88 Deg 1.68 µg/m3
2023-01-30 11:00 9.77 µg/m3 67.42 µg/m3 8.12 µg/m3 14.25 °C N/A 1,009.66 mbar 1.02 m/s 271.46 Deg 2.41 µg/m3
2023-01-30 10:00 37.59 µg/m3 33.31 µg/m3 10.2 µg/m3 12.96 °C N/A 1,009.57 mbar 0.67 m/s 240.45 Deg 23.19 µg/m3
2023-01-30 09:00 65.47 µg/m3 3.96 µg/m3 7.85 µg/m3 10.72 °C N/A 1,009.11 mbar 0.48 m/s 297.7 Deg 80.99 µg/m3
2023-01-30 08:00 61.81 µg/m3 5.51 µg/m3 6.3 µg/m3 9.15 °C N/A 1,008.59 mbar 0.53 m/s 301.64 Deg 36.08 µg/m3
2023-01-30 07:00 48.07 µg/m3 14.23 µg/m3 4.47 µg/m3 8.97 °C N/A 1,008.11 mbar 0.53 m/s 320.18 Deg 3.13 µg/m3
2023-01-30 06:00 30.88 µg/m3 28.64 µg/m3 2.8 µg/m3 9.18 °C N/A 1,007.71 mbar 0.51 m/s 321.55 Deg 0.42 µg/m3
2023-01-30 05:00 10.89 µg/m3 52.32 µg/m3 1.9 µg/m3 9.54 °C N/A 1,007.53 mbar 0.72 m/s 162.25 Deg 0.09 µg/m3
2023-01-30 04:00 3.97 µg/m3 72.82 µg/m3 2.31 µg/m3 9.39 °C N/A 1,007.79 mbar 0.72 m/s 318.16 Deg 0.1 µg/m3
2023-01-30 03:00 0.81 µg/m3 80.59 µg/m3 2.24 µg/m3 9.26 °C N/A 1,008.23 mbar 1.86 m/s 236.59 Deg 0.08 µg/m3
2023-01-30 02:00 1.65 µg/m3 78.67 µg/m3 2.29 µg/m3 10.22 °C N/A 1,008.05 mbar 1.8 m/s 35.87 Deg 0.07 µg/m3
2023-01-30 01:00 1.87 µg/m3 75.59 µg/m3 2.84 µg/m3 10.41 °C N/A 1,007.74 mbar 1.73 m/s 90.97 Deg 0.08 µg/m3
2023-01-30 00:00 2.4 µg/m3 73.81 µg/m3 3.33 µg/m3 11.66 °C N/A 1,007.82 mbar 1.99 m/s 38.47 Deg 0.07 µg/m3
2023-01-29 23:00 3.8 µg/m3 69.72 µg/m3 5.15 µg/m3 11.27 °C N/A 1,007.71 mbar 1.11 m/s 30.68 Deg 0.12 µg/m3
2023-01-29 22:00 10.04 µg/m3 57.91 µg/m3 4.45 µg/m3 10.28 °C N/A 1,007.68 mbar 0.66 m/s 229.62 Deg 0.18 µg/m3
2023-01-29 21:00 11 µg/m3 61.12 µg/m3 4.92 µg/m3 9.36 °C N/A 1,007.31 mbar 0.68 m/s 275.34 Deg 0.31 µg/m3
2023-01-29 20:00 9.57 µg/m3 68.84 µg/m3 3.24 µg/m3 9.53 °C N/A 1,007.28 mbar 1.41 m/s 184.12 Deg 0.46 µg/m3
2023-01-29 19:00 11.47 µg/m3 67.41 µg/m3 2.07 µg/m3 9.8 °C N/A 1,006.97 mbar 0.92 m/s 234.21 Deg 0.37 µg/m3
2023-01-29 18:00 5.93 µg/m3 74.83 µg/m3 1.2 µg/m3 10.75 °C N/A 1,006.43 mbar 2.26 m/s 207.29 Deg 0.52 µg/m3
2023-01-29 17:00 3.82 µg/m3 76.6 µg/m3 1.48 µg/m3 12.03 °C N/A 1,005.81 mbar 2.56 m/s 51.42 Deg 0.45 µg/m3
2023-01-29 16:00 3.12 µg/m3 77.31 µg/m3 2.48 µg/m3 12.46 °C N/A 1,005.56 mbar 2.5 m/s 104.58 Deg 0.62 µg/m3
2023-01-29 15:00 2.46 µg/m3 77.8 µg/m3 1.42 µg/m3 12.8 °C N/A 1,005.35 mbar 2.69 m/s 34.65 Deg 0.57 µg/m3
2023-01-29 14:00 2.56 µg/m3 79.2 µg/m3 1.42 µg/m3 13.08 °C N/A 1,005.47 mbar 2.48 m/s 24.73 Deg 0.63 µg/m3
2023-01-29 13:00 3.1 µg/m3 78.27 µg/m3 1.25 µg/m3 13.1 °C N/A 1,006.11 mbar 2.39 m/s 101.7 Deg 0.75 µg/m3
2023-01-29 12:00 4.14 µg/m3 75.92 µg/m3 1.9 µg/m3 12.94 °C N/A 1,006.71 mbar 2.06 m/s 32.7 Deg 0.97 µg/m3
2023-01-29 11:00 4.43 µg/m3 73.54 µg/m3 2.29 µg/m3 12.69 °C N/A 1,006.77 mbar 2.15 m/s 88.68 Deg 1.09 µg/m3
2023-01-29 10:00 5.12 µg/m3 73.82 µg/m3 2.07 µg/m3 12.48 °C N/A 1,006.24 mbar 1.72 m/s 26.63 Deg 0.98 µg/m3
2023-01-29 09:00 12.13 µg/m3 57.96 µg/m3 1.86 µg/m3 11.41 °C N/A 1,005.62 mbar 0.83 m/s 100.69 Deg 1.72 µg/m3
2023-01-29 08:00 9.69 µg/m3 51.78 µg/m3 0.67 µg/m3 8.97 °C N/A 1,005.08 mbar 0.47 m/s 330.76 Deg 0.51 µg/m3
2023-01-29 07:00 2.53 µg/m3 68.17 µg/m3 0.16 µg/m3 9.11 °C N/A 1,004.73 mbar 0.64 m/s 306.79 Deg 0.17 µg/m3
2023-01-29 06:00 1.68 µg/m3 69.97 µg/m3 0.5 µg/m3 9.3 °C N/A 1,004.42 mbar 0.76 m/s 305.93 Deg 0.14 µg/m3
2023-01-29 05:00 2.58 µg/m3 65.07 µg/m3 -0.2 µg/m3 9.16 °C N/A 1,004.16 mbar 0.77 m/s 306.57 Deg 0.15 µg/m3
2023-01-29 04:00 2.01 µg/m3 62.4 µg/m3 -0.09 µg/m3 8.93 °C N/A 1,004.02 mbar 0.75 m/s 304.85 Deg 0.11 µg/m3
2023-01-29 03:00 3.14 µg/m3 59.43 µg/m3 0.36 µg/m3 9 °C N/A 1,003.90 mbar 0.51 m/s 307.06 Deg 0.1 µg/m3
2023-01-29 02:00 3.17 µg/m3 60.1 µg/m3 0.4 µg/m3 9.27 °C N/A 1,003.84 mbar 0.85 m/s 287.73 Deg 0.15 µg/m3
2023-01-29 01:00 7.76 µg/m3 61.52 µg/m3 1.14 µg/m3 9.09 °C N/A 1,003.53 mbar 0.78 m/s 286.4 Deg 0.15 µg/m3
2023-01-29 00:00 2.63 µg/m3 80.09 µg/m3 1.08 µg/m3 9.01 °C N/A 1,003.76 mbar 1.29 m/s 92.93 Deg 0.1 µg/m3
2023-01-28 23:00 2.43 µg/m3 79.63 µg/m3 1.54 µg/m3 9.13 °C N/A 1,003.59 mbar 1.99 m/s 215.09 Deg 0.15 µg/m3
2023-01-28 22:00 2.79 µg/m3 79.06 µg/m3 2.24 µg/m3 9.23 °C N/A 1,003.08 mbar 2.26 m/s 295.07 Deg 0.11 µg/m3
2023-01-28 21:00 21.84 µg/m3 44.42 µg/m3 3.24 µg/m3 9.08 °C N/A 1,002.62 mbar 0.95 m/s 282.25 Deg 0.51 µg/m3
2023-01-28 20:00 22.59 µg/m3 49.33 µg/m3 2.37 µg/m3 8.93 °C N/A 1,002.26 mbar 0.79 m/s 273.47 Deg 0.95 µg/m3
2023-01-28 19:00 5.63 µg/m3 76.03 µg/m3 1.99 µg/m3 9.17 °C N/A 1,002.15 mbar 1.18 m/s 316.55 Deg 0.25 µg/m3
2023-01-28 18:00 8.8 µg/m3 65.72 µg/m3 1.86 µg/m3 9.83 °C N/A 1,001.30 mbar 0.71 m/s 301.69 Deg 0.27 µg/m3
2023-01-28 17:00 5.31 µg/m3 73.95 µg/m3 1.31 µg/m3 10.18 °C N/A 1,000.90 mbar 1.04 m/s 309.93 Deg 0.37 µg/m3
2023-01-28 16:00 10.57 µg/m3 68.48 µg/m3 0.7 µg/m3 9.79 °C N/A 1,000.47 mbar 1.33 m/s 284.15 Deg 0.68 µg/m3
2023-01-28 15:00 10.27 µg/m3 69.04 µg/m3 0.23 µg/m3 10.37 °C N/A 999.93 mbar 1.55 m/s 283.73 Deg 0.85 µg/m3
2023-01-28 14:00 7.59 µg/m3 71.93 µg/m3 1.14 µg/m3 10.87 °C N/A 1,000.00 mbar 1.05 m/s 297.71 Deg 0.54 µg/m3
2023-01-28 13:00 7.02 µg/m3 77.61 µg/m3 1.8 µg/m3 12.7 °C N/A 1,000.03 mbar 0.98 m/s 311.46 Deg 1.37 µg/m3
2023-01-28 12:00 6.17 µg/m3 75.58 µg/m3 0.95 µg/m3 12.01 °C N/A 1,000.60 mbar 1.24 m/s 245.31 Deg 1.43 µg/m3
2023-01-28 11:00 8.01 µg/m3 71.01 µg/m3 2.16 µg/m3 12.26 °C N/A 1,000.91 mbar 0.91 m/s 334.61 Deg 1.84 µg/m3
2023-01-28 10:00 34.84 µg/m3 34.93 µg/m3 1.52 µg/m3 9.02 °C N/A 1,000.80 mbar 0.49 m/s 324.6 Deg 8 µg/m3
2023-01-28 09:00 21.17 µg/m3 56.01 µg/m3 0.89 µg/m3 8.35 °C N/A 1,000.16 mbar 1.2 m/s 321.91 Deg 2.35 µg/m3
2023-01-28 08:00 27.08 µg/m3 50.05 µg/m3 1.31 µg/m3 9.78 °C N/A 999.59 mbar 1.1 m/s 296.25 Deg 4.86 µg/m3
2023-01-28 07:00 42.09 µg/m3 22.65 µg/m3 0.78 µg/m3 8.28 °C N/A 999.47 mbar 0.45 m/s 283.51 Deg 2.99 µg/m3
2023-01-28 06:00 7.7 µg/m3 64 µg/m3 -0.35 µg/m3 8.82 °C N/A 999.32 mbar 0.62 m/s 290.25 Deg 0.21 µg/m3
2023-01-28 05:00 4.6 µg/m3 76.04 µg/m3 -0.2 µg/m3 9.55 °C N/A 999.07 mbar 1.14 m/s 293.32 Deg 0.11 µg/m3
2023-01-28 04:00 0.98 µg/m3 80.7 µg/m3 -0.75 µg/m3 9.33 °C N/A 999.16 mbar 1.48 m/s 297.48 Deg 0.11 µg/m3
2023-01-28 03:00 1.94 µg/m3 78.7 µg/m3 -0.98 µg/m3 8.9 °C N/A 999.23 mbar 1.28 m/s 308.36 Deg 0.1 µg/m3
2023-01-28 02:00 1.97 µg/m3 76.88 µg/m3 0.23 µg/m3 9.86 °C N/A 999.04 mbar 0.98 m/s 321.19 Deg 0.11 µg/m3
2023-01-28 01:00 2.67 µg/m3 72.47 µg/m3 2.35 µg/m3 10.44 °C N/A 999.03 mbar 0.83 m/s 315.02 Deg 0.12 µg/m3
2023-01-28 00:00 4.08 µg/m3 68.11 µg/m3 2.29 µg/m3 10.46 °C N/A 999.10 mbar 0.72 m/s 299.55 Deg 0.17 µg/m3
2023-01-27 23:00 5.61 µg/m3 62.34 µg/m3 1.63 µg/m3 10.02 °C N/A 999.13 mbar 0.82 m/s 294.52 Deg 0.18 µg/m3
2023-01-27 22:00 4.2 µg/m3 66.25 µg/m3 1.86 µg/m3 9.62 °C N/A 998.89 mbar 0.74 m/s 301.23 Deg 0.18 µg/m3
2023-01-27 21:00 3.82 µg/m3 74.93 µg/m3 2.75 µg/m3 10.78 °C N/A 998.82 mbar 1.11 m/s 312.37 Deg 0.13 µg/m3
2023-01-27 20:00 4.63 µg/m3 69.72 µg/m3 2.82 µg/m3 11.47 °C N/A 998.17 mbar 0.76 m/s 316.05 Deg 0.26 µg/m3
2023-01-27 19:00 4.48 µg/m3 73.52 µg/m3 2.12 µg/m3 12.05 °C N/A 997.36 mbar 0.89 m/s 316.69 Deg 0.21 µg/m3
2023-01-27 18:00 7.3 µg/m3 71.44 µg/m3 1.46 µg/m3 12 °C N/A 996.64 mbar 0.88 m/s 331.5 Deg 0.4 µg/m3
2023-01-27 17:00 6.61 µg/m3 75.68 µg/m3 2.07 µg/m3 12.44 °C N/A 996.19 mbar 1.37 m/s 329.18 Deg 0.84 µg/m3
2023-01-27 16:00 8.53 µg/m3 74.7 µg/m3 2.58 µg/m3 12.76 °C N/A 995.41 mbar 1.76 m/s 327.03 Deg 1.52 µg/m3
2023-01-27 15:00 5.48 µg/m3 76.57 µg/m3 1.59 µg/m3 13.18 °C N/A 994.76 mbar 1.67 m/s 256.46 Deg 0.85 µg/m3
2023-01-27 14:00 3.89 µg/m3 79.91 µg/m3 0.78 µg/m3 13.55 °C N/A 994.30 mbar 2.1 m/s 345.72 Deg 0.86 µg/m3
2023-01-27 13:00 4.49 µg/m3 77.63 µg/m3 0.12 µg/m3 12.88 °C N/A 994.25 mbar 1.83 m/s 341.77 Deg 0.84 µg/m3
2023-01-27 12:00 5.85 µg/m3 76 µg/m3 0.08 µg/m3 12.36 °C N/A 994.65 mbar 1.74 m/s 343.63 Deg 0.79 µg/m3
2023-01-27 11:00 8.59 µg/m3 70.05 µg/m3 -0.01 µg/m3 12.09 °C N/A 994.43 mbar 1.51 m/s 181 Deg 1.3 µg/m3
2023-01-27 10:00 11.35 µg/m3 64.34 µg/m3 0.53 µg/m3 11.19 °C N/A 993.80 mbar 1.28 m/s 343.7 Deg 0.99 µg/m3
2023-01-27 09:00 10.74 µg/m3 69.72 µg/m3 1.03 µg/m3 11.19 °C N/A 992.94 mbar 1.31 m/s 334.43 Deg 0.74 µg/m3
2023-01-27 08:00 5.92 µg/m3 78.42 µg/m3 0.76 µg/m3 11.08 °C N/A 992.10 mbar 1.57 m/s 323.25 Deg 0.39 µg/m3
2023-01-27 07:00 3.01 µg/m3 81.58 µg/m3 3.69 µg/m3 10.29 °C N/A 991.86 mbar 1.69 m/s 311.85 Deg 0.19 µg/m3
2023-01-27 06:00 18.99 µg/m3 53.33 µg/m3 -0.39 µg/m3 9.02 °C N/A 991.83 mbar 0.77 m/s 270.05 Deg 1.18 µg/m3
2023-01-27 05:00 3.04 µg/m3 74.46 µg/m3 -2.66 µg/m3 9.05 °C N/A 991.89 mbar 1.14 m/s 237.81 Deg 0.12 µg/m3
2023-01-27 04:00 1.2 µg/m3 81.69 µg/m3 -0.24 µg/m3 10.3 °C N/A 992.30 mbar 2.44 m/s 286.53 Deg 0.07 µg/m3
2023-01-27 03:00 1.2 µg/m3 81.15 µg/m3 1.27 µg/m3 10.16 °C N/A 992.89 mbar 2.33 m/s 290.42 Deg 0.06 µg/m3
2023-01-27 02:00 2.11 µg/m3 82.65 µg/m3 0.91 µg/m3 10.49 °C N/A 993.55 mbar 2.52 m/s 294.37 Deg 0.07 µg/m3
2023-01-27 01:00 8.15 µg/m3 62.08 µg/m3 2.5 µg/m3 8.8 °C N/A 994.11 mbar 0.75 m/s 286.29 Deg 0.11 µg/m3
2023-01-27 00:00 8.63 µg/m3 64.23 µg/m3 2.97 µg/m3 8.45 °C N/A 994.65 mbar 0.66 m/s 294.83 Deg 0.19 µg/m3
2023-01-26 23:00 10.72 µg/m3 55.15 µg/m3 3.56 µg/m3 8.09 °C N/A 995.35 mbar 0.67 m/s 282.73 Deg 0.21 µg/m3
2023-01-26 22:00 15.33 µg/m3 50.66 µg/m3 3.58 µg/m3 7.81 °C N/A 995.71 mbar 0.77 m/s 293.41 Deg 0.27 µg/m3
2023-01-26 21:00 31.07 µg/m3 31.22 µg/m3 3.39 µg/m3 7.92 °C N/A 995.86 mbar 0.4 m/s 267.94 Deg 0.95 µg/m3
2023-01-26 20:00 14.25 µg/m3 57.87 µg/m3 2.84 µg/m3 8.35 °C N/A 995.54 mbar 0.52 m/s 315.74 Deg 0.23 µg/m3
2023-01-26 19:00 17.22 µg/m3 64.97 µg/m3 3.24 µg/m3 8.56 °C N/A 995.56 mbar 0.63 m/s 271.41 Deg 0.61 µg/m3
2023-01-26 18:00 11.94 µg/m3 72.6 µg/m3 2.54 µg/m3 9.25 °C N/A 995.48 mbar 0.93 m/s 246.8 Deg 0.26 µg/m3
2023-01-26 17:00 11.46 µg/m3 73.64 µg/m3 2.69 µg/m3 10.97 °C N/A 994.68 mbar 2.09 m/s 284.68 Deg 0.7 µg/m3
2023-01-26 16:00 9.27 µg/m3 77.63 µg/m3 2.78 µg/m3 12.82 °C N/A 994.57 mbar 2.26 m/s 298.85 Deg 1.75 µg/m3
2023-01-26 15:00 5.88 µg/m3 81.82 µg/m3 3.71 µg/m3 13.33 °C N/A 994.58 mbar 2.87 m/s 294.1 Deg 0.89 µg/m3
2023-01-26 14:00 6.13 µg/m3 80.02 µg/m3 1.1 µg/m3 13.59 °C N/A 995.07 mbar 2.69 m/s 287.8 Deg 0.97 µg/m3
2023-01-26 13:00 16.86 µg/m3 81.02 µg/m3 3.24 µg/m3 13.69 °C N/A 995.76 mbar 3.19 m/s 283.83 Deg 4.54 µg/m3
2023-01-26 12:00 0 µg/m3 78.85 µg/m3 1.86 µg/m3 13.55 °C N/A 996.83 mbar 3.11 m/s 274.13 Deg 0 µg/m3
2023-01-26 11:00 0 µg/m3 74.33 µg/m3 11.56 µg/m3 13.29 °C N/A 997.49 mbar 2.49 m/s 288.92 Deg 0 µg/m3
2023-01-26 10:00 72.86 µg/m3 44.8 µg/m3 21.05 µg/m3 12.15 °C N/A 997.63 mbar 1.45 m/s 279.09 Deg 143.53 µg/m3
2023-01-26 09:00 69.97 µg/m3 3.39 µg/m3 16.17 µg/m3 9.05 °C N/A 997.77 mbar 0.34 m/s 280.06 Deg 122.4 µg/m3
2023-01-26 08:00 68.33 µg/m3 2.34 µg/m3 9.04 µg/m3 7.71 °C N/A 997.93 mbar 0.26 m/s 295.73 Deg 80.75 µg/m3
2023-01-26 07:00 48.56 µg/m3 15.41 µg/m3 5.9 µg/m3 7.84 °C N/A 998.15 mbar 0.37 m/s 244.45 Deg 6.42 µg/m3
2023-01-26 06:00 19.41 µg/m3 43.38 µg/m3 4.94 µg/m3 8.16 °C N/A 998.43 mbar 0.29 m/s 306.35 Deg 0.3 µg/m3
2023-01-26 05:00 9.57 µg/m3 61 µg/m3 1.54 µg/m3 8.98 °C N/A 998.76 mbar 0.52 m/s 18.55 Deg 0.26 µg/m3
2023-01-26 04:00 5.21 µg/m3 77.05 µg/m3 1.29 µg/m3 10.42 °C N/A 999.07 mbar 0.8 m/s 345.35 Deg 0.28 µg/m3
2023-01-26 03:00 2.58 µg/m3 85.92 µg/m3 0.93 µg/m3 11.43 °C N/A 999.20 mbar 1.76 m/s 290.01 Deg 0.22 µg/m3
2023-01-26 02:00 2.62 µg/m3 85.47 µg/m3 0.78 µg/m3 11.54 °C N/A 999.55 mbar 2.31 m/s 277.87 Deg 0.22 µg/m3
2023-01-26 01:00 3.36 µg/m3 84.56 µg/m3 1.82 µg/m3 11.36 °C N/A 1,000.15 mbar 1.75 m/s 258.47 Deg 0.23 µg/m3
2023-01-26 00:00 5.72 µg/m3 82.6 µg/m3 4.32 µg/m3 11.76 °C N/A 1,000.78 mbar 2.06 m/s 257.77 Deg 0.3 µg/m3
2023-01-25 23:00 9.63 µg/m3 79.4 µg/m3 12.31 µg/m3 11.54 °C N/A 1,001.48 mbar 1.29 m/s 247.46 Deg 0.34 µg/m3
2023-01-25 22:00 31.05 µg/m3 31.77 µg/m3 17.59 µg/m3 10.04 °C N/A 1,002.15 mbar 0.58 m/s 274.64 Deg 1.05 µg/m3
2023-01-25 21:00 58.61 µg/m3 5.66 µg/m3 13.26 µg/m3 9.8 °C N/A 1,002.44 mbar 0.57 m/s 281.58 Deg 21.21 µg/m3
2023-01-25 20:00 60.97 µg/m3 2.08 µg/m3 10.03 µg/m3 10.09 °C N/A 1,002.65 mbar 0.55 m/s 298.31 Deg 15.1 µg/m3
2023-01-25 19:00 54.17 µg/m3 12.73 µg/m3 6.23 µg/m3 10.86 °C N/A 1,002.74 mbar 0.69 m/s 283.54 Deg 5.41 µg/m3
2023-01-25 18:00 23.34 µg/m3 55.43 µg/m3 3.99 µg/m3 12.14 °C N/A 1,002.58 mbar 0.33 m/s 254.17 Deg 1.05 µg/m3
2023-01-25 17:00 11.08 µg/m3 76.74 µg/m3 4.05 µg/m3 13.41 °C N/A 1,002.56 mbar 0.65 m/s 330.8 Deg 0.67 µg/m3
2023-01-25 16:00 5.84 µg/m3 89.11 µg/m3 4.32 µg/m3 14.33 °C N/A 1,002.56 mbar 1.2 m/s 337.45 Deg 0.75 µg/m3
2023-01-25 15:00 11.1 µg/m3 81.43 µg/m3 4.11 µg/m3 14.46 °C N/A 1,002.69 mbar 1.06 m/s 310.31 Deg 1.95 µg/m3
2023-01-25 14:00 10.03 µg/m3 81.36 µg/m3 4.15 µg/m3 14.16 °C N/A 1,003.13 mbar 1.21 m/s 316.23 Deg 1.54 µg/m3
2023-01-25 13:00 10.54 µg/m3 79.78 µg/m3 3.18 µg/m3 14.42 °C N/A 1,003.95 mbar 1.51 m/s 288.88 Deg 1.81 µg/m3
2023-01-25 12:00 8.45 µg/m3 80.95 µg/m3 3.73 µg/m3 14.43 °C N/A 1,004.86 mbar 1.12 m/s 285.8 Deg 1.73 µg/m3
2023-01-25 11:00 8.94 µg/m3 76.57 µg/m3 5.3 µg/m3 14.19 °C N/A 1,005.44 mbar 0.79 m/s 268.61 Deg 1.27 µg/m3
2023-01-25 10:00 25.08 µg/m3 55.97 µg/m3 8.59 µg/m3 13.34 °C N/A 1,005.67 mbar 0.76 m/s 338.51 Deg 8.28 µg/m3
2023-01-25 09:00 62.53 µg/m3 5.41 µg/m3 8.85 µg/m3 10.07 °C N/A 1,005.41 mbar 0.35 m/s 306.74 Deg 65.99 µg/m3
2023-01-25 08:00 60.98 µg/m3 1.72 µg/m3 5.36 µg/m3 8.75 °C N/A 1,005.16 mbar 0.3 m/s 291.35 Deg 60.43 µg/m3
2023-01-25 07:00 31.68 µg/m3 34.18 µg/m3 2.37 µg/m3 9.59 °C N/A 1,005.10 mbar 0.3 m/s 295.88 Deg 6.68 µg/m3
2023-01-25 06:00 11.62 µg/m3 54.21 µg/m3 1.48 µg/m3 9.58 °C N/A 1,005.25 mbar 0.57 m/s 300.4 Deg 0.3 µg/m3
2023-01-25 05:00 10.71 µg/m3 54.55 µg/m3 -0.01 µg/m3 9.8 °C N/A 1,005.42 mbar 0.64 m/s 281.25 Deg 0.63 µg/m3
2023-01-25 04:00 5.13 µg/m3 49.99 µg/m3 -0.47 µg/m3 9.93 °C N/A 1,005.43 mbar 0.56 m/s 297.29 Deg 0.29 µg/m3
2023-01-25 03:00 5.05 µg/m3 46.2 µg/m3 -0.15 µg/m3 9.09 °C N/A 1,005.84 mbar 0.49 m/s 303.88 Deg 0.29 µg/m3
2023-01-25 02:00 7.08 µg/m3 42.46 µg/m3 3.33 µg/m3 8.87 °C N/A 1,006.08 mbar 0.43 m/s 282.47 Deg 0.3 µg/m3
2023-01-25 01:00 14.47 µg/m3 41.06 µg/m3 5.09 µg/m3 8.83 °C N/A 1,006.61 mbar 0.47 m/s 287.85 Deg 0.54 µg/m3
2023-01-25 00:00 14.73 µg/m3 45.32 µg/m3 7.66 µg/m3 8.76 °C N/A 1,007.12 mbar 0.56 m/s 278.58 Deg 0.42 µg/m3
2023-01-24 23:00 23.91 µg/m3 39.33 µg/m3 8.7 µg/m3 9.11 °C N/A 1,007.56 mbar 0.6 m/s 228.69 Deg 0.68 µg/m3
2023-01-24 22:00 28.87 µg/m3 34.97 µg/m3 7.25 µg/m3 9.27 °C N/A 1,007.69 mbar 0.59 m/s 256.51 Deg 0.73 µg/m3
2023-01-24 21:00 53.8 µg/m3 21.82 µg/m3 7.64 µg/m3 9.74 °C N/A 1,007.40 mbar 0.68 m/s 179.59 Deg 3.79 µg/m3
2023-01-24 20:00 66.52 µg/m3 12.91 µg/m3 5.32 µg/m3 9.95 °C N/A 1,007.71 mbar 0.83 m/s 176.36 Deg 7.69 µg/m3
2023-01-24 19:00 49.74 µg/m3 31.1 µg/m3 5.15 µg/m3 10.13 °C N/A 1,008.19 mbar 0.92 m/s 142.71 Deg 5.23 µg/m3
2023-01-24 18:00 29.17 µg/m3 54.05 µg/m3 6.6 µg/m3 10.46 °C N/A 1,008.44 mbar 1.4 m/s 158.23 Deg 2.29 µg/m3
2023-01-24 17:00 55.6 µg/m3 26.54 µg/m3 3.82 µg/m3 10.38 °C N/A 1,008.79 mbar 0.89 m/s 194.06 Deg 5.84 µg/m3
2023-01-24 16:00 31.65 µg/m3 55.12 µg/m3 1.99 µg/m3 11.23 °C N/A 1,008.98 mbar 1.77 m/s 192.65 Deg 4.14 µg/m3
2023-01-24 15:00 22.73 µg/m3 68.7 µg/m3 3.65 µg/m3 13 °C N/A 1,008.47 mbar 2.65 m/s 145.12 Deg 2.47 µg/m3
2023-01-24 14:00 18.31 µg/m3 70.72 µg/m3 3.07 µg/m3 13.45 °C N/A 1,008.14 mbar 3.28 m/s 141.03 Deg 1.94 µg/m3
2023-01-24 13:00 14.29 µg/m3 74.92 µg/m3 3.62 µg/m3 13.62 °C N/A 1,008.62 mbar 3.57 m/s 141.88 Deg 1.83 µg/m3
2023-01-24 12:00 11.45 µg/m3 74.78 µg/m3 5.41 µg/m3 14.14 °C N/A 1,009.56 mbar 3.76 m/s 137.92 Deg 2.83 µg/m3
2023-01-24 11:00 16.05 µg/m3 68.37 µg/m3 6.72 µg/m3 13.74 °C N/A 1,010.57 mbar 3.28 m/s 137.4 Deg 3.81 µg/m3
2023-01-24 10:00 30.16 µg/m3 53.68 µg/m3 9.93 µg/m3 13.03 °C N/A 1,010.86 mbar 2.61 m/s 147.42 Deg 10.99 µg/m3
2023-01-24 09:00 68.24 µg/m3 10.34 µg/m3 7.53 µg/m3 10.53 °C N/A 1,010.94 mbar 0.88 m/s 206.72 Deg 57.99 µg/m3
2023-01-24 08:00 63.96 µg/m3 10.71 µg/m3 6.79 µg/m3 9.17 °C N/A 1,010.79 mbar 0.37 m/s 274.97 Deg 34.83 µg/m3
2023-01-24 07:00 53.92 µg/m3 5.37 µg/m3 4.56 µg/m3 7.65 °C N/A 1,010.52 mbar 0.72 m/s 274.23 Deg 45.94 µg/m3
2023-01-24 06:00 27.91 µg/m3 18.23 µg/m3 2.24 µg/m3 7.11 °C N/A 1,010.58 mbar 0.31 m/s 301.65 Deg 1.96 µg/m3
2023-01-24 05:00 14.37 µg/m3 25.72 µg/m3 0.91 µg/m3 6.92 °C N/A 1,010.59 mbar 0.36 m/s 305.82 Deg 0.32 µg/m3
2023-01-24 04:00 7.71 µg/m3 43.5 µg/m3 2.03 µg/m3 7.7 °C N/A 1,010.76 mbar 0.29 m/s 307.26 Deg 0.25 µg/m3
2023-01-24 03:00 7.53 µg/m3 41.99 µg/m3 2.05 µg/m3 8.51 °C N/A 1,011.02 mbar 0.45 m/s 292.23 Deg 0.29 µg/m3
2023-01-24 02:00 10.74 µg/m3 35.82 µg/m3 4.39 µg/m3 7.94 °C N/A 1,010.95 mbar 0.55 m/s 293.22 Deg 0.44 µg/m3
2023-01-24 01:00 22.34 µg/m3 18.88 µg/m3 5.98 µg/m3 7.2 °C N/A 1,010.77 mbar 0.4 m/s 288.99 Deg 0.41 µg/m3
2023-01-24 00:00 34.4 µg/m3 9.72 µg/m3 5.28 µg/m3 7.49 °C N/A 1,010.78 mbar 0.31 m/s 273.09 Deg 11.84 µg/m3
2023-01-23 23:00 23.11 µg/m3 25.84 µg/m3 6.49 µg/m3 7.96 °C N/A 1,010.75 mbar 0.3 m/s 291.71 Deg 0.41 µg/m3
2023-01-23 22:00 35.38 µg/m3 21.29 µg/m3 5.73 µg/m3 8.59 °C N/A 1,010.47 mbar 0.37 m/s 291.54 Deg 0.84 µg/m3
2023-01-23 21:00 40.81 µg/m3 23.12 µg/m3 6.83 µg/m3 9.16 °C N/A 1,009.92 mbar 0.54 m/s 300.86 Deg 1.22 µg/m3
2023-01-23 20:00 44.41 µg/m3 24.94 µg/m3 10.39 µg/m3 9.63 °C N/A 1,009.37 mbar 0.8 m/s 285.82 Deg 6.75 µg/m3
2023-01-23 19:00 59.58 µg/m3 10.69 µg/m3 9.57 µg/m3 10.43 °C N/A 1,008.92 mbar 0.53 m/s 253.81 Deg 14.16 µg/m3
2023-01-23 18:00 51.89 µg/m3 23.21 µg/m3 6.28 µg/m3 11.5 °C N/A 1,008.35 mbar 0.51 m/s 259.07 Deg 6.32 µg/m3
2023-01-23 17:00 23.54 µg/m3 58.72 µg/m3 2.9 µg/m3 13.22 °C N/A 1,007.84 mbar 1.1 m/s 261.3 Deg 2.37 µg/m3
2023-01-23 16:00 10.89 µg/m3 75.85 µg/m3 2.01 µg/m3 14.05 °C N/A 1,007.42 mbar 1.77 m/s 262.03 Deg 2.29 µg/m3
2023-01-23 15:00 8 µg/m3 77.15 µg/m3 1.99 µg/m3 14.19 °C N/A 1,006.93 mbar 1.88 m/s 272.35 Deg 1.87 µg/m3
2023-01-23 14:00 5.44 µg/m3 76.71 µg/m3 1.61 µg/m3 14.2 °C N/A 1,006.79 mbar 1.75 m/s 272.45 Deg 1.4 µg/m3
2023-01-23 13:00 4.46 µg/m3 76.97 µg/m3 1.54 µg/m3 14.21 °C N/A 1,006.91 mbar 1.61 m/s 295.32 Deg 1.18 µg/m3
2023-01-23 12:00 6.71 µg/m3 74.48 µg/m3 0.99 µg/m3 13.75 °C N/A 1,007.12 mbar 1.91 m/s 279.33 Deg 1.91 µg/m3
2023-01-23 11:00 9.2 µg/m3 70.87 µg/m3 1.37 µg/m3 13.45 °C N/A 1,007.24 mbar 1.79 m/s 261.85 Deg 2.37 µg/m3
2023-01-23 10:00 12.12 µg/m3 64.53 µg/m3 3.6 µg/m3 12.92 °C N/A 1,006.97 mbar 1.22 m/s 295.98 Deg 2.61 µg/m3
2023-01-23 09:00 36.41 µg/m3 36.25 µg/m3 2.82 µg/m3 11.41 °C N/A 1,006.38 mbar 0.79 m/s 278.25 Deg 9.31 µg/m3
2023-01-23 08:00 54.6 µg/m3 16.94 µg/m3 1.18 µg/m3 9.06 °C N/A 1,005.84 mbar 0.92 m/s 288.05 Deg 10.65 µg/m3
2023-01-23 07:00 38.75 µg/m3 32.89 µg/m3 0.74 µg/m3 8.93 °C N/A 1,005.44 mbar 0.87 m/s 303.15 Deg 1.7 µg/m3
2023-01-23 06:00 10.11 µg/m3 59.62 µg/m3 -0.49 µg/m3 8.64 °C N/A 1,005.03 mbar 0.63 m/s 305.6 Deg 0.32 µg/m3
2023-01-23 05:00 5.3 µg/m3 68.98 µg/m3 -0.01 µg/m3 9.53 °C N/A 1,004.60 mbar 0.92 m/s 325.53 Deg 0.27 µg/m3
2023-01-23 04:00 2.58 µg/m3 77.88 µg/m3 -0.79 µg/m3 9.57 °C N/A 1,004.44 mbar 1.79 m/s 306.75 Deg 0.24 µg/m3
2023-01-23 03:00 2.71 µg/m3 74.37 µg/m3 -0.32 µg/m3 9.51 °C N/A 1,004.50 mbar 1.34 m/s 301.56 Deg 0.27 µg/m3
2023-01-23 02:00 2.18 µg/m3 74.9 µg/m3 -0.69 µg/m3 9.38 °C N/A 1,004.22 mbar 1.35 m/s 298.75 Deg 0.24 µg/m3
2023-01-23 01:00 2.18 µg/m3 77.28 µg/m3 -0.77 µg/m3 9.42 °C N/A 1,003.99 mbar 1.52 m/s 312.96 Deg 0.23 µg/m3
2023-01-23 00:00 2.49 µg/m3 77.48 µg/m3 0.86 µg/m3 9.23 °C N/A 1,003.81 mbar 1.36 m/s 312.16 Deg 0.24 µg/m3
2023-01-22 23:00 2.98 µg/m3 72.33 µg/m3 1.14 µg/m3 8.29 °C N/A 1,003.80 mbar 0.97 m/s 331.58 Deg 0.27 µg/m3
2023-01-22 22:00 3.83 µg/m3 74.7 µg/m3 1.76 µg/m3 8.98 °C N/A 1,003.32 mbar 1.07 m/s 325.76 Deg 0.27 µg/m3
2023-01-22 21:00 4.21 µg/m3 73.36 µg/m3 1.23 µg/m3 9.2 °C N/A 1,002.71 mbar 1.02 m/s 309.5 Deg 0.29 µg/m3
2023-01-22 20:00 5.03 µg/m3 73.87 µg/m3 2.88 µg/m3 8.32 °C N/A 1,002.35 mbar 1.09 m/s 302.32 Deg 0.34 µg/m3
2023-01-22 19:00 7.41 µg/m3 69.57 µg/m3 1.1 µg/m3 8.39 °C N/A 1,001.73 mbar 1.46 m/s 296.19 Deg 0.3 µg/m3
2023-01-22 18:00 4.72 µg/m3 73.24 µg/m3 1.37 µg/m3 8.38 °C N/A 1,001.20 mbar 1.21 m/s 304.69 Deg 0.42 µg/m3
2023-01-22 17:00 4.74 µg/m3 68.91 µg/m3 1.16 µg/m3 9.98 °C N/A 1,000.56 mbar 1.08 m/s 303.21 Deg 0.42 µg/m3
2023-01-22 16:00 3.87 µg/m3 70.04 µg/m3 0.91 µg/m3 9.76 °C N/A 1,000.44 mbar 1.09 m/s 313.21 Deg 0.51 µg/m3
2023-01-22 15:00 3.78 µg/m3 69.69 µg/m3 2.54 µg/m3 9.1 °C N/A 1,000.33 mbar 1.09 m/s 325.99 Deg 0.46 µg/m3
2023-01-22 14:00 3.74 µg/m3 68.78 µg/m3 -0.15 µg/m3 9.71 °C N/A 999.90 mbar 1.47 m/s 339.5 Deg 0.54 µg/m3
2023-01-22 13:00 3.56 µg/m3 70.51 µg/m3 -0.6 µg/m3 10.49 °C N/A 999.99 mbar 1.56 m/s 335.23 Deg 0.81 µg/m3
2023-01-22 12:00 3.72 µg/m3 69.21 µg/m3 2.86 µg/m3 11.23 °C N/A 999.88 mbar 1.32 m/s 332.52 Deg 0.75 µg/m3
2023-01-22 11:00 9.3 µg/m3 59.21 µg/m3 3.69 µg/m3 10.4 °C N/A 1,000.38 mbar 1.18 m/s 308.19 Deg 0.89 µg/m3
2023-01-22 10:00 12.43 µg/m3 53.03 µg/m3 3.6 µg/m3 11.49 °C N/A 1,000.09 mbar 0.66 m/s 202.33 Deg 1.01 µg/m3
2023-01-22 09:00 8.83 µg/m3 61.81 µg/m3 2.33 µg/m3 11.2 °C N/A 1,000.29 mbar 1.11 m/s 203.88 Deg 1.35 µg/m3
2023-01-22 08:00 7.6 µg/m3 64.99 µg/m3 2.29 µg/m3 10.32 °C N/A 1,000.43 mbar 1.41 m/s 230.39 Deg 0.6 µg/m3
2023-01-22 07:00 3.24 µg/m3 75.6 µg/m3 3.56 µg/m3 10.7 °C N/A 1,000.43 mbar 2.4 m/s 274.03 Deg 0.31 µg/m3
2023-01-22 06:00 5 µg/m3 71.04 µg/m3 0.95 µg/m3 11.85 °C N/A 999.55 mbar 1.2 m/s 251.62 Deg 0.28 µg/m3
2023-01-22 05:00 3.14 µg/m3 73.32 µg/m3 1.42 µg/m3 11.66 °C N/A 999.89 mbar 1.13 m/s 256.84 Deg 0.33 µg/m3
2023-01-22 04:00 1.88 µg/m3 77.18 µg/m3 1.4 µg/m3 11.91 °C N/A 1,000.49 mbar 1.66 m/s 264.47 Deg 0.23 µg/m3
2023-01-22 03:00 2.15 µg/m3 76.14 µg/m3 1.03 µg/m3 11.86 °C N/A 1,001.14 mbar 1.66 m/s 256.88 Deg 0.25 µg/m3
2023-01-22 02:00 2.3 µg/m3 76.54 µg/m3 1.03 µg/m3 11.87 °C N/A 1,001.58 mbar 1.84 m/s 260.63 Deg 0.25 µg/m3
2023-01-22 01:00 3.03 µg/m3 75.11 µg/m3 1.95 µg/m3 11.75 °C N/A 1,001.63 mbar 1.72 m/s 257.9 Deg 0.29 µg/m3
2023-01-22 00:00 3.86 µg/m3 74.11 µg/m3 1.16 µg/m3 11.72 °C N/A 1,002.01 mbar 1.76 m/s 251.02 Deg 0.35 µg/m3
2023-01-21 23:00 3.92 µg/m3 74.16 µg/m3 1.69 µg/m3 11.46 °C N/A 1,002.29 mbar 1.38 m/s 248.5 Deg 0.32 µg/m3
2023-01-21 22:00 5.9 µg/m3 71.02 µg/m3 3.33 µg/m3 11.09 °C N/A 1,002.32 mbar 1.32 m/s 258.15 Deg 0.33 µg/m3
2023-01-21 21:00 8.76 µg/m3 67.96 µg/m3 3.45 µg/m3 11.32 °C N/A 1,002.31 mbar 1.38 m/s 269.1 Deg 0.63 µg/m3
2023-01-21 20:00 7.09 µg/m3 70.09 µg/m3 3.6 µg/m3 11.75 °C N/A 1,002.09 mbar 1.58 m/s 280.08 Deg 0.41 µg/m3
2023-01-21 19:00 6.44 µg/m3 70.93 µg/m3 2.73 µg/m3 11.97 °C N/A 1,001.71 mbar 1.59 m/s 285.4 Deg 0.37 µg/m3
2023-01-21 18:00 4.12 µg/m3 72.77 µg/m3 3.05 µg/m3 12.07 °C N/A 1,001.31 mbar 1.49 m/s 295.79 Deg 0.29 µg/m3
2023-01-21 17:00 3.81 µg/m3 74.57 µg/m3 2.63 µg/m3 12.76 °C N/A 1,000.92 mbar 1.43 m/s 311.67 Deg 0.45 µg/m3
2023-01-21 16:00 3.91 µg/m3 75.19 µg/m3 3.5 µg/m3 13.11 °C N/A 1,000.53 mbar 2.54 m/s 305.25 Deg 0.61 µg/m3
2023-01-21 15:00 3.96 µg/m3 75.4 µg/m3 2.27 µg/m3 13.41 °C N/A 1,000.21 mbar 2.14 m/s 317 Deg 0.8 µg/m3
2023-01-21 14:00 4.07 µg/m3 75.57 µg/m3 3.65 µg/m3 13.46 °C N/A 1,000.14 mbar 2.82 m/s 304.72 Deg 1.07 µg/m3
2023-01-21 13:00 4.46 µg/m3 73.47 µg/m3 4.86 µg/m3 13.09 °C N/A 1,000.32 mbar 2.36 m/s 321.25 Deg 1.36 µg/m3
2023-01-21 12:00 4.59 µg/m3 70.67 µg/m3 4.41 µg/m3 12.78 °C N/A 1,000.93 mbar 2.42 m/s 322.82 Deg 1.1 µg/m3
2023-01-21 11:00 7.88 µg/m3 65.96 µg/m3 2.16 µg/m3 12.32 °C N/A 1,001.13 mbar 3.35 m/s 301.58 Deg 2.42 µg/m3
2023-01-21 10:00 7.55 µg/m3 65.73 µg/m3 1.03 µg/m3 11.57 °C N/A 1,000.75 mbar 2.26 m/s 306.37 Deg 1.59 µg/m3
2023-01-21 09:00 6.14 µg/m3 68.25 µg/m3 0.63 µg/m3 10.84 °C N/A 1,000.19 mbar 2.19 m/s 322.42 Deg 1.03 µg/m3
2023-01-21 08:00 6.18 µg/m3 68.54 µg/m3 0.74 µg/m3 10.61 °C N/A 999.65 mbar 2.24 m/s 318.33 Deg 0.95 µg/m3
2023-01-21 07:00 2.54 µg/m3 73.42 µg/m3 1.25 µg/m3 10.77 °C N/A 999.22 mbar 1.92 m/s 319.7 Deg 0.3 µg/m3
2023-01-21 06:00 2.04 µg/m3 76.53 µg/m3 2.67 µg/m3 11.24 °C N/A 998.87 mbar 2.61 m/s 315.97 Deg 0.26 µg/m3
2023-01-21 05:00 1.69 µg/m3 78.57 µg/m3 3.03 µg/m3 11.31 °C N/A 998.57 mbar 3.07 m/s 320.37 Deg 0.22 µg/m3
2023-01-21 04:00 1.45 µg/m3 78.39 µg/m3 2.18 µg/m3 11.37 °C N/A 998.86 mbar 3.44 m/s 308.47 Deg 0.23 µg/m3
2023-01-21 03:00 1.5 µg/m3 77.21 µg/m3 2.29 µg/m3 11.56 °C N/A 998.92 mbar 3.32 m/s 313.08 Deg 0.23 µg/m3
2023-01-21 02:00 1.55 µg/m3 77.98 µg/m3 3.43 µg/m3 11.72 °C N/A 998.74 mbar 3.67 m/s 311.52 Deg 0.23 µg/m3
2023-01-21 01:00 1.51 µg/m3 77.22 µg/m3 2.75 µg/m3 11.83 °C N/A 998.83 mbar 3.16 m/s 318.88 Deg 0.24 µg/m3
2023-01-21 00:00 1.67 µg/m3 79.37 µg/m3 2.92 µg/m3 12.01 °C N/A 998.91 mbar 4.05 m/s 309.92 Deg 0.23 µg/m3
2023-01-20 23:00 1.86 µg/m3 78.13 µg/m3 2.46 µg/m3 11.76 °C N/A 998.88 mbar 2.66 m/s 310.62 Deg 0.26 µg/m3
2023-01-20 22:00 1.94 µg/m3 77.06 µg/m3 2.75 µg/m3 11.77 °C N/A 998.75 mbar 2.41 m/s 324 Deg 0.28 µg/m3
2023-01-20 21:00 2.53 µg/m3 75.95 µg/m3 6.74 µg/m3 13.86 °C N/A 997.97 mbar 2.98 m/s 306.25 Deg 0.34 µg/m3
2023-01-20 20:00 3.2 µg/m3 75.84 µg/m3 11.33 µg/m3 14 °C N/A 997.52 mbar 3.49 m/s 302.7 Deg 0.34 µg/m3
2023-01-20 19:00 5.06 µg/m3 76.87 µg/m3 7.98 µg/m3 14.05 °C N/A 997.25 mbar 4.14 m/s 278.97 Deg 0.45 µg/m3
2023-01-20 18:00 5.02 µg/m3 80.06 µg/m3 4.32 µg/m3 13.67 °C N/A 997.15 mbar 3.89 m/s 282.1 Deg 0.46 µg/m3
2023-01-20 17:00 4.85 µg/m3 82.48 µg/m3 5.19 µg/m3 13.59 °C N/A 997.27 mbar 5.03 m/s 284.18 Deg 0.53 µg/m3
2023-01-20 16:00 4.63 µg/m3 82.23 µg/m3 5.66 µg/m3 13.81 °C N/A 997.06 mbar 6.26 m/s 273.73 Deg 0.89 µg/m3
2023-01-20 15:00 4.5 µg/m3 79.15 µg/m3 6.15 µg/m3 14.03 °C N/A 997.19 mbar 6.23 m/s 278.3 Deg 1.16 µg/m3
2023-01-20 14:00 3.93 µg/m3 77.48 µg/m3 6.7 µg/m3 14.4 °C N/A 997.83 mbar 5.26 m/s 266.02 Deg 1.1 µg/m3
2023-01-20 13:00 4.39 µg/m3 75.31 µg/m3 2.44 µg/m3 14.55 °C N/A 998.83 mbar 4.97 m/s 261.68 Deg 1.31 µg/m3
2023-01-20 12:00 4.66 µg/m3 71.47 µg/m3 2.18 µg/m3 14.28 °C N/A 1,000.27 mbar 4.17 m/s 258.88 Deg 1.51 µg/m3
2023-01-20 11:00 4.91 µg/m3 67.82 µg/m3 0.48 µg/m3 13.55 °C N/A 1,001.28 mbar 4.03 m/s 265.35 Deg 1.36 µg/m3
2023-01-20 10:00 0 µg/m3 0 µg/m3 -0.22 µg/m3 12.78 °C N/A 1,001.64 mbar 2.79 m/s 279.03 Deg 0 µg/m3
2023-01-20 09:00 28.33 µg/m3 39.61 µg/m3 8.44 µg/m3 10.33 °C N/A 1,001.73 mbar 1.23 m/s 288.54 Deg 10.34 µg/m3
2023-01-20 08:00 61.09 µg/m3 4.02 µg/m3 3.75 µg/m3 8.49 °C N/A 1,001.91 mbar 0.49 m/s 245.41 Deg 55.31 µg/m3
2023-01-20 07:00 22.69 µg/m3 41.8 µg/m3 0.91 µg/m3 8.5 °C N/A 1,001.83 mbar 0.43 m/s 273.25 Deg 7.19 µg/m3
2023-01-20 06:00 2.91 µg/m3 71.78 µg/m3 0.86 µg/m3 9.07 °C N/A 1,001.48 mbar 1.09 m/s 321.34 Deg 0.29 µg/m3
2023-01-20 05:00 2.16 µg/m3 67.88 µg/m3 2.03 µg/m3 9.14 °C N/A 1,001.25 mbar 1.19 m/s 340.41 Deg 0.28 µg/m3
2023-01-20 04:00 1.66 µg/m3 73.95 µg/m3 0.12 µg/m3 9.43 °C N/A 1,001.22 mbar 1.71 m/s 329.42 Deg 0.25 µg/m3
2023-01-20 03:00 1.51 µg/m3 72.59 µg/m3 0.38 µg/m3 9.85 °C N/A 1,001.32 mbar 1.68 m/s 327.7 Deg 0.25 µg/m3
2023-01-20 02:00 1.37 µg/m3 75.55 µg/m3 -0.69 µg/m3 10.98 °C N/A 1,001.13 mbar 2.3 m/s 313.07 Deg 0.22 µg/m3
2023-01-20 01:00 1.33 µg/m3 75.38 µg/m3 0.38 µg/m3 10.75 °C N/A 1,000.99 mbar 2.19 m/s 317.55 Deg 0.25 µg/m3
2023-01-20 00:00 1.51 µg/m3 75.2 µg/m3 1.9 µg/m3 10.95 °C N/A 1,001.17 mbar 2.62 m/s 310.07 Deg 0.23 µg/m3
2023-01-19 23:00 1.83 µg/m3 75.07 µg/m3 2.95 µg/m3 10.16 °C N/A 1,001.20 mbar 1.75 m/s 303.9 Deg 0.23 µg/m3
2023-01-19 22:00 1.86 µg/m3 76.36 µg/m3 1.71 µg/m3 9.56 °C N/A 1,001.45 mbar 1.56 m/s 306.2 Deg 0.25 µg/m3
2023-01-19 21:00 2.48 µg/m3 77.97 µg/m3 1.23 µg/m3 11.1 °C N/A 1,000.29 mbar 1.71 m/s 323.77 Deg 0.27 µg/m3
2023-01-19 20:00 2.97 µg/m3 77.16 µg/m3 0.46 µg/m3 10.29 °C N/A 999.73 mbar 1.72 m/s 323.55 Deg 0.31 µg/m3
2023-01-19 19:00 4.16 µg/m3 75.08 µg/m3 -1.13 µg/m3 9.38 °C N/A 999.37 mbar 1.5 m/s 308.75 Deg 0.32 µg/m3
2023-01-19 18:00 4.82 µg/m3 75.61 µg/m3 0.33 µg/m3 10.14 °C N/A 998.64 mbar 2.13 m/s 334.22 Deg 0.46 µg/m3
2023-01-19 17:00 10.36 µg/m3 72.27 µg/m3 2.24 µg/m3 10.36 °C N/A 997.88 mbar 1.49 m/s 316.83 Deg 0.99 µg/m3
2023-01-19 16:00 14.58 µg/m3 70.65 µg/m3 0.95 µg/m3 8.65 °C N/A 998.12 mbar 1.88 m/s 271.33 Deg 1.09 µg/m3
2023-01-19 15:00 13.14 µg/m3 71.37 µg/m3 2.99 µg/m3 9.37 °C N/A 998.28 mbar 1.77 m/s 315.97 Deg 1.33 µg/m3
2023-01-19 14:00 23.6 µg/m3 52.85 µg/m3 2.52 µg/m3 10.56 °C N/A 997.60 mbar 0.55 m/s 255.01 Deg 3.3 µg/m3
2023-01-19 13:00 15.44 µg/m3 62.81 µg/m3 0.74 µg/m3 10.85 °C N/A 998.06 mbar 0.9 m/s 290.43 Deg 1.82 µg/m3
2023-01-19 12:00 14.49 µg/m3 64.59 µg/m3 4.11 µg/m3 11.29 °C N/A 998.84 mbar 1.28 m/s 280.34 Deg 1.07 µg/m3
2023-01-19 11:00 17.15 µg/m3 65.09 µg/m3 2.52 µg/m3 13.38 °C N/A 998.55 mbar 1.35 m/s 298.7 Deg 1.36 µg/m3
2023-01-19 10:00 13.83 µg/m3 70.28 µg/m3 11.18 µg/m3 13.95 °C N/A 998.30 mbar 1.57 m/s 283.34 Deg 1.89 µg/m3
2023-01-19 09:00 36.86 µg/m3 43.81 µg/m3 11.27 µg/m3 13.25 °C N/A 997.91 mbar 1.21 m/s 297.57 Deg 5.12 µg/m3
2023-01-19 08:00 41.75 µg/m3 39.62 µg/m3 4.81 µg/m3 12.55 °C N/A 997.72 mbar 1.02 m/s 297.33 Deg 2.92 µg/m3
2023-01-19 07:00 15.68 µg/m3 65.22 µg/m3 2.24 µg/m3 12.43 °C N/A 997.26 mbar 0.82 m/s 310.43 Deg 0.5 µg/m3
2023-01-19 06:00 7.78 µg/m3 74.09 µg/m3 2.24 µg/m3 12.59 °C N/A 996.75 mbar 0.76 m/s 307.21 Deg 0.27 µg/m3
2023-01-19 05:00 3.91 µg/m3 79.38 µg/m3 3.35 µg/m3 12.51 °C N/A 996.26 mbar 0.82 m/s 309.96 Deg 0.27 µg/m3
2023-01-19 04:00 3.11 µg/m3 79.71 µg/m3 1.97 µg/m3 13.07 °C N/A 996.34 mbar 0.77 m/s 310.71 Deg 0.28 µg/m3
2023-01-19 03:00 3.5 µg/m3 75.25 µg/m3 2.99 µg/m3 13.54 °C N/A 996.19 mbar 0.73 m/s 321.68 Deg 0.27 µg/m3
2023-01-19 02:00 3.89 µg/m3 73.26 µg/m3 10.14 µg/m3 13.84 °C N/A 996.04 mbar 1.11 m/s 346.11 Deg 0.26 µg/m3
2023-01-19 01:00 3.7 µg/m3 72.12 µg/m3 61.95 µg/m3 14.94 °C N/A 995.28 mbar 1.12 m/s 335 Deg 0.25 µg/m3
2023-01-19 00:00 2.78 µg/m3 72.36 µg/m3 79.06 µg/m3 16.94 °C N/A 994.82 mbar 2.52 m/s 279.23 Deg 0.26 µg/m3
2023-01-18 23:00 2.64 µg/m3 73.15 µg/m3 74.6 µg/m3 17.4 °C N/A 994.52 mbar 2.96 m/s 247 Deg 0.35 µg/m3
2023-01-18 22:00 2.81 µg/m3 73.7 µg/m3 45.23 µg/m3 17.11 °C N/A 994.62 mbar 3.18 m/s 249.43 Deg 0.39 µg/m3
2023-01-18 21:00 4.12 µg/m3 73.24 µg/m3 22.45 µg/m3 16.4 °C N/A 994.69 mbar 2.74 m/s 245.15 Deg 0.54 µg/m3
2023-01-18 20:00 5.49 µg/m3 72.56 µg/m3 20.82 µg/m3 16.32 °C N/A 994.46 mbar 3.02 m/s 247.1 Deg 0.74 µg/m3
2023-01-18 19:00 5.83 µg/m3 72.41 µg/m3 23.49 µg/m3 16.49 °C N/A 994.07 mbar 2.88 m/s 236.72 Deg 0.81 µg/m3
2023-01-18 18:00 8.68 µg/m3 68.54 µg/m3 27.25 µg/m3 16.61 °C N/A 993.70 mbar 2.48 m/s 244.87 Deg 1.05 µg/m3
2023-01-18 17:00 7.72 µg/m3 69.28 µg/m3 35.5 µg/m3 17.18 °C N/A 993.45 mbar 3.32 m/s 250.03 Deg 1.19 µg/m3
2023-01-18 16:00 7.1 µg/m3 69.03 µg/m3 40.77 µg/m3 17.9 °C N/A 993.34 mbar 3.5 m/s 255.32 Deg 1.76 µg/m3
2023-01-18 15:00 6.46 µg/m3 68.86 µg/m3 43.57 µg/m3 18.42 °C N/A 993.47 mbar 4.08 m/s 252.35 Deg 1.72 µg/m3
2023-01-18 14:00 5.43 µg/m3 69.06 µg/m3 49.34 µg/m3 18.56 °C N/A 993.76 mbar 4.37 m/s 264.22 Deg 1.55 µg/m3
2023-01-18 13:00 5.49 µg/m3 69.34 µg/m3 54.76 µg/m3 18.58 °C N/A 994.17 mbar 4.14 m/s 265.87 Deg 1.79 µg/m3
2023-01-18 12:00 5.43 µg/m3 69.63 µg/m3 55.67 µg/m3 18.4 °C N/A 994.64 mbar 3.95 m/s 268.82 Deg 1.41 µg/m3
2023-01-18 11:00 4.95 µg/m3 70.47 µg/m3 56.9 µg/m3 17.96 °C N/A 994.88 mbar 3.88 m/s 271.65 Deg 1.24 µg/m3
2023-01-18 10:00 5.78 µg/m3 69.05 µg/m3 45.12 µg/m3 17.43 °C N/A 994.81 mbar 3.3 m/s 269.9 Deg 1.19 µg/m3
2023-01-18 09:00 8.9 µg/m3 65.09 µg/m3 22.32 µg/m3 16.55 °C N/A 994.40 mbar 3.08 m/s 276.15 Deg 1.37 µg/m3
2023-01-18 08:00 11.58 µg/m3 61.56 µg/m3 12.2 µg/m3 15.81 °C N/A 994.02 mbar 2.37 m/s 278.38 Deg 0.93 µg/m3
2023-01-18 07:00 9.83 µg/m3 63.4 µg/m3 11.29 µg/m3 15.46 °C N/A 993.56 mbar 2.1 m/s 278.08 Deg 0.48 µg/m3
2023-01-18 06:00 4.38 µg/m3 70.96 µg/m3 12.18 µg/m3 15.42 °C N/A 993.33 mbar 1.89 m/s 290 Deg 0.28 µg/m3
2023-01-18 05:00 2.67 µg/m3 75.82 µg/m3 15.36 µg/m3 15.7 °C N/A 993.39 mbar 2.44 m/s 280.37 Deg 0.25 µg/m3
2023-01-18 04:00 2.15 µg/m3 76.64 µg/m3 36.08 µg/m3 15.75 °C N/A 993.73 mbar 2.15 m/s 273.78 Deg 0.24 µg/m3
2023-01-18 03:00 2.19 µg/m3 77.77 µg/m3 55.2 µg/m3 15.96 °C N/A 994.12 mbar 2.69 m/s 272.65 Deg 0.24 µg/m3
2023-01-18 02:00 2 µg/m3 78.35 µg/m3 66.64 µg/m3 16.06 °C N/A 994.33 mbar 2.15 m/s 267.03 Deg 0.23 µg/m3
2023-01-18 01:00 4.32 µg/m3 73.89 µg/m3 69.7 µg/m3 16.28 °C N/A 994.73 mbar 2.3 m/s 278.96 Deg 0.23 µg/m3
2023-01-18 00:00 2.54 µg/m3 73.77 µg/m3 72.46 µg/m3 16.44 °C N/A 995.03 mbar 2.45 m/s 281.07 Deg 0.25 µg/m3
2023-01-17 23:00 2.49 µg/m3 73.48 µg/m3 68.66 µg/m3 16.62 °C N/A 995.00 mbar 2.7 m/s 277.3 Deg 0.23 µg/m3
2023-01-17 22:00 3.01 µg/m3 74.54 µg/m3 57.43 µg/m3 16.95 °C N/A 994.73 mbar 3.11 m/s 283.45 Deg 0.31 µg/m3
2023-01-17 21:00 3.15 µg/m3 76.14 µg/m3 35.61 µg/m3 17.13 °C N/A 994.48 mbar 3.38 m/s 281.12 Deg 0.32 µg/m3
2023-01-17 20:00 3.74 µg/m3 76.92 µg/m3 22.34 µg/m3 17.28 °C N/A 994.07 mbar 3.76 m/s 279.8 Deg 0.39 µg/m3
2023-01-17 19:00 4.8 µg/m3 76.66 µg/m3 13.37 µg/m3 17.09 °C N/A 993.46 mbar 4.06 m/s 275.07 Deg 0.49 µg/m3
2023-01-17 18:00 7.39 µg/m3 74.82 µg/m3 10.14 µg/m3 16.76 °C N/A 993.10 mbar 4.21 m/s 265.2 Deg 0.83 µg/m3
2023-01-17 17:00 6.55 µg/m3 73 µg/m3 9.1 µg/m3 17.2 °C N/A 992.99 mbar 4.42 m/s 265.8 Deg 1.04 µg/m3
2023-01-17 16:00 5.56 µg/m3 74.09 µg/m3 12.05 µg/m3 17.8 °C N/A 993.26 mbar 4.46 m/s 264.65 Deg 1.14 µg/m3
2023-01-17 15:00 5.92 µg/m3 73.7 µg/m3 13.88 µg/m3 17.99 °C N/A 993.61 mbar 4.81 m/s 260.67 Deg 1.54 µg/m3
2023-01-17 14:00 5.64 µg/m3 72.99 µg/m3 12.79 µg/m3 18.26 °C N/A 994.30 mbar 4.54 m/s 265.17 Deg 1.47 µg/m3
2023-01-17 13:00 5.11 µg/m3 72.36 µg/m3 11.01 µg/m3 18.21 °C N/A 994.97 mbar 4.71 m/s 266.17 Deg 1.37 µg/m3
2023-01-17 12:00 4.98 µg/m3 72.1 µg/m3 8.97 µg/m3 17.8 °C N/A 995.76 mbar 4.42 m/s 258.7 Deg 1.39 µg/m3
2023-01-17 11:00 5.19 µg/m3 72.06 µg/m3 7.81 µg/m3 17.57 °C N/A 996.50 mbar 4.25 m/s 267.55 Deg 1.38 µg/m3
2023-01-17 10:00 5.53 µg/m3 71.9 µg/m3 8.04 µg/m3 16.76 °C N/A 996.80 mbar 4.32 m/s 271.52 Deg 1.12 µg/m3
2023-01-17 09:00 7.83 µg/m3 74.41 µg/m3 6.79 µg/m3 16.25 °C N/A 997.00 mbar 3.75 m/s 264.03 Deg 1.38 µg/m3
2023-01-17 08:00 9.25 µg/m3 73.82 µg/m3 7.27 µg/m3 15.73 °C N/A 997.18 mbar 4.01 m/s 269.82 Deg 1.03 µg/m3
2023-01-17 07:00 9.39 µg/m3 72.66 µg/m3 8.68 µg/m3 15.44 °C N/A 997.54 mbar 2.7 m/s 267.17 Deg 0.7 µg/m3
2023-01-17 06:00 5.45 µg/m3 77.57 µg/m3 8.27 µg/m3 15.49 °C N/A 997.73 mbar 2.7 m/s 271.69 Deg 0.3 µg/m3
2023-01-17 05:00 3.67 µg/m3 78.88 µg/m3 7.38 µg/m3 15.46 °C N/A 997.96 mbar 2.26 m/s 281.98 Deg 0.25 µg/m3
2023-01-17 04:00 2.9 µg/m3 83.04 µg/m3 9.21 µg/m3 15.43 °C N/A 998.49 mbar 2.57 m/s 279.27 Deg 0.24 µg/m3
2023-01-17 03:00 3.06 µg/m3 84.39 µg/m3 10.27 µg/m3 15.32 °C N/A 999.10 mbar 2.19 m/s 263.35 Deg 0.24 µg/m3
2023-01-17 02:00 2.68 µg/m3 86.3 µg/m3 7.66 µg/m3 15.43 °C N/A 999.56 mbar 2.45 m/s 267.05 Deg 0.24 µg/m3
2023-01-17 01:00 2.8 µg/m3 86.88 µg/m3 5.53 µg/m3 15.46 °C N/A 999.99 mbar 2.56 m/s 266.58 Deg 0.4 µg/m3
2023-01-17 00:00 4.15 µg/m3 86.57 µg/m3 5.13 µg/m3 15.2 °C N/A 1,000.54 mbar 2.36 m/s 262.75 Deg 0.26 µg/m3
2023-01-16 23:00 5.49 µg/m3 83.83 µg/m3 5.9 µg/m3 14.97 °C N/A 1,001.05 mbar 1.63 m/s 257.45 Deg 0.29 µg/m3
2023-01-16 22:00 4.96 µg/m3 88.33 µg/m3 5.39 µg/m3 15.06 °C N/A 1,001.34 mbar 1.67 m/s 260.87 Deg 0.29 µg/m3
2023-01-16 21:00 6.32 µg/m3 89.95 µg/m3 5.58 µg/m3 15.27 °C N/A 1,001.22 mbar 2.05 m/s 273.55 Deg 0.29 µg/m3
2023-01-16 20:00 8.6 µg/m3 93.26 µg/m3 5.79 µg/m3 15.4 °C N/A 1,001.11 mbar 2 m/s 274.65 Deg 0.36 µg/m3
2023-01-16 19:00 11.99 µg/m3 90.15 µg/m3 5.56 µg/m3 15.42 °C N/A 1,000.99 mbar 1.74 m/s 287.58 Deg 0.46 µg/m3
2023-01-16 18:00 11.53 µg/m3 90.17 µg/m3 6.62 µg/m3 15.58 °C N/A 1,000.58 mbar 1.85 m/s 295.68 Deg 0.89 µg/m3
2023-01-16 17:00 7.9 µg/m3 92.39 µg/m3 6.11 µg/m3 16.53 °C N/A 1,000.49 mbar 1.98 m/s 298.52 Deg 0.43 µg/m3
2023-01-16 16:00 7.51 µg/m3 91.3 µg/m3 6.96 µg/m3 17.36 °C N/A 1,000.38 mbar 2.13 m/s 294.32 Deg 0.89 µg/m3
2023-01-16 15:00 8.42 µg/m3 84.82 µg/m3 7.15 µg/m3 17.97 °C N/A 1,000.61 mbar 1.84 m/s 297.27 Deg 1.25 µg/m3
2023-01-16 14:00 7.39 µg/m3 83.43 µg/m3 7.34 µg/m3 18.36 °C N/A 1,001.04 mbar 1.45 m/s 320.5 Deg 1.28 µg/m3
2023-01-16 13:00 6.11 µg/m3 82.71 µg/m3 5.9 µg/m3 18.28 °C N/A 1,001.82 mbar 1.24 m/s 309 Deg 1.01 µg/m3
2023-01-16 12:00 6.01 µg/m3 82.54 µg/m3 6.91 µg/m3 17.27 °C N/A 1,002.81 mbar 1.89 m/s 284.6 Deg 1.16 µg/m3
2023-01-16 11:00 7.44 µg/m3 80.6 µg/m3 6.79 µg/m3 16.83 °C N/A 1,003.30 mbar 2.38 m/s 288.83 Deg 1.45 µg/m3
2023-01-16 10:00 9.39 µg/m3 78.59 µg/m3 7.27 µg/m3 16.52 °C N/A 1,003.92 mbar 2.33 m/s 295.63 Deg 1.44 µg/m3
2023-01-16 09:00 13.33 µg/m3 72.97 µg/m3 6.17 µg/m3 15.65 °C N/A 1,003.76 mbar 1.85 m/s 286.03 Deg 1.35 µg/m3
2023-01-16 08:00 20.89 µg/m3 62.86 µg/m3 4.64 µg/m3 14.29 °C N/A 1,003.74 mbar 1.61 m/s 278.76 Deg 1.42 µg/m3
2023-01-16 07:00 25.81 µg/m3 55.69 µg/m3 5.43 µg/m3 14.1 °C N/A 1,004.00 mbar 1.64 m/s 270.23 Deg 1.85 µg/m3
2023-01-16 06:00 6.9 µg/m3 76.31 µg/m3 4.98 µg/m3 14.55 °C N/A 1,004.21 mbar 1.85 m/s 278.57 Deg 0.28 µg/m3
2023-01-16 05:00 4.57 µg/m3 80.16 µg/m3 8.97 µg/m3 14.65 °C N/A 1,004.28 mbar 2.25 m/s 271.13 Deg 0.36 µg/m3
2023-01-16 04:00 3 µg/m3 78.88 µg/m3 10.46 µg/m3 14.52 °C N/A 1,004.74 mbar 1.72 m/s 280.55 Deg 0.26 µg/m3
2023-01-16 03:00 3.49 µg/m3 77.56 µg/m3 6.21 µg/m3 14.16 °C N/A 1,005.51 mbar 1.44 m/s 285.74 Deg 0.26 µg/m3
2023-01-16 02:00 2.6 µg/m3 82.6 µg/m3 3.07 µg/m3 14.2 °C N/A 1,006.17 mbar 1.58 m/s 289.75 Deg 0.28 µg/m3
2023-01-16 01:00 2.63 µg/m3 80.41 µg/m3 1.99 µg/m3 14.02 °C N/A 1,006.71 mbar 1.23 m/s 282.78 Deg 0.26 µg/m3
2023-01-16 00:00 3.37 µg/m3 77.92 µg/m3 2.39 µg/m3 13.69 °C N/A 1,007.41 mbar 1.23 m/s 283.89 Deg 0.28 µg/m3
2023-01-15 23:00 12.44 µg/m3 59.8 µg/m3 3.03 µg/m3 12.84 °C N/A 1,007.89 mbar 0.47 m/s 258.35 Deg 0.32 µg/m3
2023-01-15 22:00 15.02 µg/m3 58.96 µg/m3 2.86 µg/m3 12.96 °C N/A 1,008.15 mbar 0.44 m/s 249.62 Deg 0.45 µg/m3
2023-01-15 21:00 5.82 µg/m3 75.98 µg/m3 2.82 µg/m3 13.62 °C N/A 1,008.32 mbar 0.96 m/s 278.79 Deg 0.33 µg/m3
2023-01-15 20:00 5.16 µg/m3 76.58 µg/m3 2.39 µg/m3 14.03 °C N/A 1,008.48 mbar 1.09 m/s 287.7 Deg 0.3 µg/m3
2023-01-15 19:00 10.09 µg/m3 69.51 µg/m3 2.37 µg/m3 14.3 °C N/A 1,008.41 mbar 1.03 m/s 289.5 Deg 0.52 µg/m3
2023-01-15 18:00 8.34 µg/m3 75.36 µg/m3 3.5 µg/m3 14.51 °C N/A 1,008.29 mbar 0.9 m/s 293.01 Deg 0.33 µg/m3
2023-01-15 17:00 4.86 µg/m3 81.14 µg/m3 3.79 µg/m3 15.33 °C N/A 1,008.22 mbar 0.93 m/s 311.83 Deg 0.37 µg/m3
2023-01-15 16:00 3.43 µg/m3 85.16 µg/m3 1.99 µg/m3 16.6 °C N/A 1,008.18 mbar 1.24 m/s 324 Deg 0.45 µg/m3
2023-01-15 15:00 3.14 µg/m3 83.82 µg/m3 2.73 µg/m3 16.62 °C N/A 1,008.39 mbar 1.44 m/s 320.38 Deg 0.49 µg/m3
2023-01-15 14:00 2.85 µg/m3 84.11 µg/m3 2.73 µg/m3 16.98 °C N/A 1,008.77 mbar 1.44 m/s 329.8 Deg 0.5 µg/m3
2023-01-15 13:00 2.55 µg/m3 81.64 µg/m3 3.22 µg/m3 17.15 °C N/A 1,009.22 mbar 1.48 m/s 322.88 Deg 0.46 µg/m3
2023-01-15 12:00 3.7 µg/m3 77.2 µg/m3 3.69 µg/m3 16.4 °C N/A 1,010.06 mbar 1.33 m/s 344.91 Deg 0.6 µg/m3
2023-01-15 11:00 4.93 µg/m3 76.75 µg/m3 4.09 µg/m3 16.03 °C N/A 1,010.56 mbar 1.79 m/s 95.37 Deg 0.85 µg/m3
2023-01-15 10:00 6.97 µg/m3 70.5 µg/m3 4.2 µg/m3 15.5 °C N/A 1,010.39 mbar 1.44 m/s 264.17 Deg 1.15 µg/m3
2023-01-15 09:00 13.99 µg/m3 54.17 µg/m3 3.62 µg/m3 13.98 °C N/A 1,010.21 mbar 0.64 m/s 336.33 Deg 1.62 µg/m3
2023-01-15 08:00 12.7 µg/m3 51.75 µg/m3 2.48 µg/m3 11.92 °C N/A 1,010.17 mbar 0.38 m/s 302.91 Deg 0.73 µg/m3
2023-01-15 07:00 7.94 µg/m3 61.12 µg/m3 2.73 µg/m3 11.82 °C N/A 1,009.84 mbar 0.44 m/s 310.05 Deg 0.31 µg/m3
2023-01-15 06:00 4.08 µg/m3 72.77 µg/m3 2.61 µg/m3 12.79 °C N/A 1,009.44 mbar 0.72 m/s 336.55 Deg 0.28 µg/m3
2023-01-15 05:00 3.44 µg/m3 77.2 µg/m3 2.18 µg/m3 13.22 °C N/A 1,009.24 mbar 1.06 m/s 352.75 Deg 0.28 µg/m3
2023-01-15 04:00 3.37 µg/m3 74.46 µg/m3 3.03 µg/m3 13.18 °C N/A 1,009.34 mbar 1.14 m/s 89.98 Deg 0.29 µg/m3
2023-01-15 03:00 2.97 µg/m3 75.34 µg/m3 2.71 µg/m3 13.41 °C N/A 1,009.42 mbar 1.19 m/s 344.98 Deg 0.28 µg/m3
2023-01-15 02:00 3.78 µg/m3 71.55 µg/m3 3.65 µg/m3 13.47 °C N/A 1,009.38 mbar 0.96 m/s 332.25 Deg 0.28 µg/m3
2023-01-15 01:00 5.06 µg/m3 67.89 µg/m3 4.03 µg/m3 13.57 °C N/A 1,009.54 mbar 1.05 m/s 334.03 Deg 0.3 µg/m3
2023-01-15 00:00 5.25 µg/m3 67.5 µg/m3 5.56 µg/m3 13.81 °C N/A 1,009.89 mbar 0.73 m/s 332.04 Deg 0.32 µg/m3
2023-01-14 23:00 4.9 µg/m3 67.5 µg/m3 5.24 µg/m3 13.92 °C N/A 1,009.74 mbar 0.97 m/s 320.46 Deg 0.39 µg/m3
2023-01-14 22:00 5.8 µg/m3 68.77 µg/m3 3.31 µg/m3 14.4 °C N/A 1,009.63 mbar 1.15 m/s 179.17 Deg 0.36 µg/m3
2023-01-14 21:00 4.71 µg/m3 68.5 µg/m3 3.77 µg/m3 14.46 °C N/A 1,009.48 mbar 1.39 m/s 262.56 Deg 0.33 µg/m3
2023-01-14 20:00 5.7 µg/m3 69.12 µg/m3 4.75 µg/m3 14.64 °C N/A 1,009.21 mbar 1.32 m/s 343.52 Deg 0.42 µg/m3
2023-01-14 19:00 7.01 µg/m3 68.11 µg/m3 4.71 µg/m3 14.47 °C N/A 1,008.90 mbar 1.03 m/s 334.55 Deg 0.31 µg/m3
2023-01-14 18:00 6.23 µg/m3 69.69 µg/m3 4.24 µg/m3 14.68 °C N/A 1,008.46 mbar 0.94 m/s 242.02 Deg 0.29 µg/m3
2023-01-14 17:00 5.35 µg/m3 72.83 µg/m3 5.51 µg/m3 15.71 °C N/A 1,008.13 mbar 1.33 m/s 325.83 Deg 0.48 µg/m3
2023-01-14 16:00 4.11 µg/m3 74.98 µg/m3 5.53 µg/m3 16.61 °C N/A 1,007.76 mbar 2.1 m/s 349.04 Deg 0.54 µg/m3
2023-01-14 15:00 3.3 µg/m3 75.97 µg/m3 5.83 µg/m3 16.83 °C N/A 1,007.71 mbar 1.72 m/s 337.78 Deg 0.55 µg/m3
2023-01-14 14:00 3.58 µg/m3 75.38 µg/m3 3.62 µg/m3 17.45 °C N/A 1,007.76 mbar 1.97 m/s 333.55 Deg 0.63 µg/m3
2023-01-14 13:00 4.55 µg/m3 75.3 µg/m3 5.32 µg/m3 17.38 °C N/A 1,008.49 mbar 2.04 m/s 336.13 Deg 0.93 µg/m3
2023-01-14 12:00 6.31 µg/m3 71.51 µg/m3 6.02 µg/m3 17.02 °C N/A 1,009.32 mbar 2.14 m/s 334.82 Deg 1.07 µg/m3
2023-01-14 11:00 7.55 µg/m3 69.84 µg/m3 6.68 µg/m3 16.88 °C N/A 1,009.73 mbar 1.79 m/s 332.72 Deg 1.44 µg/m3
2023-01-14 10:00 10.17 µg/m3 62.19 µg/m3 5.7 µg/m3 15.94 °C N/A 1,009.45 mbar 1.57 m/s 343.9 Deg 1.53 µg/m3
2023-01-14 09:00 14.24 µg/m3 56.55 µg/m3 3.2 µg/m3 14.8 °C N/A 1,009.08 mbar 1.04 m/s 323.03 Deg 1.74 µg/m3
2023-01-14 08:00 20.25 µg/m3 43.6 µg/m3 2.88 µg/m3 13.69 °C N/A 1,008.95 mbar 0.71 m/s 311.58 Deg 0.95 µg/m3
2023-01-14 07:00 12.73 µg/m3 53.72 µg/m3 3.39 µg/m3 13.8 °C N/A 1,008.97 mbar 0.7 m/s 320.64 Deg 0.39 µg/m3
2023-01-14 06:00 5.41 µg/m3 62.77 µg/m3 3.45 µg/m3 13.84 °C N/A 1,008.91 mbar 0.87 m/s 312.05 Deg 0.3 µg/m3
2023-01-14 05:00 3.42 µg/m3 68.33 µg/m3 3.18 µg/m3 14.18 °C N/A 1,008.93 mbar 0.79 m/s 333.43 Deg 0.28 µg/m3
2023-01-14 04:00 4.48 µg/m3 66.2 µg/m3 4.05 µg/m3 13.98 °C N/A 1,009.21 mbar 0.74 m/s 319.98 Deg 0.25 µg/m3
2023-01-14 03:00 3.88 µg/m3 71.43 µg/m3 3.54 µg/m3 13.78 °C N/A 1,009.64 mbar 0.85 m/s 328.64 Deg 0.27 µg/m3
2023-01-14 02:00 3.02 µg/m3 76.51 µg/m3 2.44 µg/m3 14.25 °C N/A 1,009.78 mbar 1.36 m/s 336.18 Deg 0.27 µg/m3
2023-01-14 01:00 3 µg/m3 76.02 µg/m3 3.43 µg/m3 14.22 °C N/A 1,009.91 mbar 1.23 m/s 330.85 Deg 0.26 µg/m3
2023-01-14 00:00 3.14 µg/m3 72.98 µg/m3 4.56 µg/m3 13.8 °C N/A 1,010.25 mbar 0.91 m/s 326.3 Deg 0.25 µg/m3
2023-01-13 23:00 3.27 µg/m3 72.54 µg/m3 6.07 µg/m3 13.82 °C N/A 1,010.40 mbar 0.77 m/s 311.83 Deg 0.26 µg/m3
2023-01-13 22:00 5.37 µg/m3 66.73 µg/m3 4.83 µg/m3 13.55 °C N/A 1,010.60 mbar 0.72 m/s 310.38 Deg 0.3 µg/m3
2023-01-13 21:00 7.79 µg/m3 66.28 µg/m3 4.66 µg/m3 13.82 °C N/A 1,010.88 mbar 0.8 m/s 322.82 Deg 0.31 µg/m3
2023-01-13 20:00 11.62 µg/m3 60.28 µg/m3 4.86 µg/m3 13.53 °C N/A 1,010.98 mbar 0.77 m/s 319.1 Deg 0.33 µg/m3
2023-01-13 19:00 15.4 µg/m3 56.78 µg/m3 3.73 µg/m3 13.23 °C N/A 1,010.68 mbar 0.57 m/s 297.92 Deg 0.31 µg/m3
2023-01-13 18:00 11.96 µg/m3 62.69 µg/m3 3.35 µg/m3 13.83 °C N/A 1,010.46 mbar 0.72 m/s 325.13 Deg 0.48 µg/m3
2023-01-13 17:00 8.63 µg/m3 66.44 µg/m3 2.71 µg/m3 15.38 °C N/A 1,010.19 mbar 0.96 m/s 319.04 Deg 0.55 µg/m3
2023-01-13 16:00 4.99 µg/m3 73.16 µg/m3 2.37 µg/m3 16.56 °C N/A 1,009.79 mbar 1.07 m/s 329.17 Deg 0.64 µg/m3
2023-01-13 15:00 7.84 µg/m3 69.68 µg/m3 0.42 µg/m3 16.14 °C N/A 1,009.51 mbar 1.68 m/s 21.6 Deg 1.5 µg/m3
2023-01-13 14:00 5.32 µg/m3 70.25 µg/m3 -0.22 µg/m3 15.65 °C N/A 1,009.79 mbar 1.75 m/s 13.58 Deg 0.79 µg/m3
2023-01-13 13:00 7.45 µg/m3 68.58 µg/m3 -0.22 µg/m3 15.88 °C N/A 1,010.28 mbar 2.01 m/s 22.08 Deg 1.36 µg/m3
2023-01-13 12:00 9.41 µg/m3 61.92 µg/m3 µg/m3 16.06 °C N/A 1,010.78 mbar 1.25 m/s 15.93 Deg 1.58 µg/m3
2023-01-13 11:00 9.05 µg/m3 59.31 µg/m3 -0.22 µg/m3 16.04 °C N/A 1,011.13 mbar 0.86 m/s 259.97 Deg 1.32 µg/m3
2023-01-13 10:00 27.61 µg/m3 38.24 µg/m3 -0.22 µg/m3 15.19 °C N/A 1,010.93 mbar 0.76 m/s 315.13 Deg 14.43 µg/m3
2023-01-13 09:00 55.03 µg/m3 7.4 µg/m3 -0.22 µg/m3 13.49 °C N/A 1,010.54 mbar 0.39 m/s 298.94 Deg 37.64 µg/m3
2023-01-13 08:00 52.55 µg/m3 5.44 µg/m3 -0.22 µg/m3 12.96 °C N/A 1,010.12 mbar 0.37 m/s 248.99 Deg 20.38 µg/m3
2023-01-13 07:00 33.98 µg/m3 14.68 µg/m3 -0.22 µg/m3 12.73 °C N/A 1,009.71 mbar 0.32 m/s 332.49 Deg 3.63 µg/m3
2023-01-13 06:00 12.68 µg/m3 39.31 µg/m3 3.52 µg/m3 12.53 °C N/A 1,009.15 mbar 0.39 m/s 256.56 Deg 0.36 µg/m3
2023-01-13 05:00 10.31 µg/m3 42.35 µg/m3 3.18 µg/m3 12.65 °C N/A 1,008.83 mbar 0.35 m/s 320.33 Deg 0.32 µg/m3
2023-01-13 04:00 9.29 µg/m3 41.03 µg/m3 3.31 µg/m3 12.93 °C N/A 1,008.86 mbar 0.46 m/s 335.22 Deg 0.33 µg/m3
2023-01-13 03:00 8.12 µg/m3 44.3 µg/m3 2.84 µg/m3 13.22 °C N/A 1,008.97 mbar 0.38 m/s 308.96 Deg 0.31 µg/m3
2023-01-13 02:00 5.58 µg/m3 57.43 µg/m3 2.75 µg/m3 14.01 °C N/A 1,008.95 mbar 0.64 m/s 263 Deg 0.34 µg/m3
2023-01-13 01:00 3.98 µg/m3 70.15 µg/m3 3.82 µg/m3 14.55 °C N/A 1,008.98 mbar 1.85 m/s 22.79 Deg 0.23 µg/m3
2023-01-13 00:00 4.48 µg/m3 69.43 µg/m3 3.56 µg/m3 14.64 °C N/A 1,008.97 mbar 2.01 m/s 99 Deg 0.26 µg/m3
2023-01-12 23:00 4.32 µg/m3 69.4 µg/m3 2.97 µg/m3 14.27 °C N/A 1,009.03 mbar 1.26 m/s 253.54 Deg 0.27 µg/m3
2023-01-12 22:00 4.02 µg/m3 70.31 µg/m3 3.22 µg/m3 14.46 °C N/A 1,008.63 mbar 1.83 m/s 350.08 Deg 0.26 µg/m3
2023-01-12 21:00 3.88 µg/m3 71.01 µg/m3 4.28 µg/m3 14.54 °C N/A 1,008.29 mbar 1.93 m/s 344.2 Deg 0.28 µg/m3
2023-01-12 20:00 4.84 µg/m3 70.47 µg/m3 5.39 µg/m3 14.62 °C N/A 1,008.00 mbar 1.8 m/s 338.96 Deg 0.28 µg/m3
2023-01-12 19:00 5.45 µg/m3 71.52 µg/m3 4.58 µg/m3 14.91 °C N/A 1,007.82 mbar 1.49 m/s 344.8 Deg 0.49 µg/m3
2023-01-12 18:00 5.22 µg/m3 74.02 µg/m3 4.92 µg/m3 14.87 °C N/A 1,007.39 mbar 1.58 m/s 331.43 Deg 0.65 µg/m3
2023-01-12 17:00 5.9 µg/m3 73.33 µg/m3 4.83 µg/m3 15.43 °C N/A 1,006.89 mbar 1.44 m/s 320.87 Deg 1.08 µg/m3
2023-01-12 16:00 5.62 µg/m3 70.5 µg/m3 3.39 µg/m3 16.28 °C N/A 1,006.51 mbar 2.25 m/s 324.27 Deg 0.74 µg/m3
2023-01-12 15:00 6.33 µg/m3 70.83 µg/m3 3.86 µg/m3 16.75 °C N/A 1,006.44 mbar 2.03 m/s 338.4 Deg 1.11 µg/m3
2023-01-12 14:00 5.68 µg/m3 68.05 µg/m3 4.28 µg/m3 16.19 °C N/A 1,006.58 mbar 2.22 m/s 335.13 Deg 1.05 µg/m3
2023-01-12 13:00 10.01 µg/m3 59.53 µg/m3 3.48 µg/m3 14.84 °C N/A 1,007.40 mbar 1.34 m/s 334.51 Deg 1.97 µg/m3
2023-01-12 12:00 12.67 µg/m3 64.32 µg/m3 6.66 µg/m3 15.39 °C N/A 1,008.12 mbar 1.64 m/s 318.2 Deg 2.89 µg/m3
2023-01-12 11:00 22.06 µg/m3 55.34 µg/m3 12.64 µg/m3 15.65 °C N/A 1,008.62 mbar 1.28 m/s 312.12 Deg 18.83 µg/m3
2023-01-12 10:00 31.11 µg/m3 53.19 µg/m3 21.39 µg/m3 16.06 °C N/A 1,008.52 mbar 1.14 m/s 320.36 Deg 30.11 µg/m3
2023-01-12 09:00 68.35 µg/m3 35.45 µg/m3 18.55 µg/m3 15.84 °C N/A 1,008.37 mbar 0.84 m/s 323.41 Deg 112.17 µg/m3
2023-01-12 08:00 35.17 µg/m3 39.82 µg/m3 12.14 µg/m3 13.83 °C N/A 1,008.56 mbar 0.78 m/s 324.82 Deg 10.63 µg/m3
2023-01-12 07:00 28.08 µg/m3 39.12 µg/m3 9.08 µg/m3 12.81 °C N/A 1,008.64 mbar 0.5 m/s 307.63 Deg 0.72 µg/m3
2023-01-12 06:00 13.07 µg/m3 57.57 µg/m3 3.18 µg/m3 12.91 °C N/A 1,008.64 mbar 0.69 m/s 322.38 Deg 0.39 µg/m3
2023-01-12 05:00 6 µg/m3 65.86 µg/m3 2.24 µg/m3 12.92 °C N/A 1,008.81 mbar 0.67 m/s 327.66 Deg 0.3 µg/m3
2023-01-12 04:00 5.07 µg/m3 70.17 µg/m3 0.72 µg/m3 13.05 °C N/A 1,009.16 mbar 0.9 m/s 331.19 Deg 0.28 µg/m3
2023-01-12 03:00 5.62 µg/m3 67.11 µg/m3 -0.01 µg/m3 12.33 °C N/A 1,009.70 mbar 0.61 m/s 330.55 Deg 0.34 µg/m3
2023-01-12 02:00 4.46 µg/m3 68.19 µg/m3 0.38 µg/m3 11.81 °C N/A 1,009.82 mbar 0.4 m/s 313.92 Deg 0.33 µg/m3
2023-01-12 01:00 2.77 µg/m3 73.29 µg/m3 0.84 µg/m3 12.22 °C N/A 1,009.82 mbar 0.73 m/s 322.26 Deg 0.28 µg/m3
2023-01-12 00:00 4.04 µg/m3 70.48 µg/m3 0.55 µg/m3 12.5 °C N/A 1,010.09 mbar 0.76 m/s 332.96 Deg 0.34 µg/m3
2023-01-11 23:00 5.21 µg/m3 71.04 µg/m3 0.33 µg/m3 12.97 °C N/A 1,010.12 mbar 0.92 m/s 342.78 Deg 0.31 µg/m3
2023-01-11 22:00 4.7 µg/m3 73.7 µg/m3 1.01 µg/m3 13.33 °C N/A 1,009.99 mbar 1.32 m/s 341.48 Deg 0.31 µg/m3
2023-01-11 21:00 8.01 µg/m3 68.55 µg/m3 2.2 µg/m3 13.11 °C N/A 1,009.96 mbar 0.84 m/s 319.35 Deg 0.33 µg/m3
2023-01-11 20:00 8.83 µg/m3 67.1 µg/m3 2.54 µg/m3 13.04 °C N/A 1,009.98 mbar 0.66 m/s 318.85 Deg 0.33 µg/m3
2023-01-11 19:00 8.66 µg/m3 69.6 µg/m3 2.46 µg/m3 13.33 °C N/A 1,009.73 mbar 0.94 m/s 316.97 Deg 0.39 µg/m3
2023-01-11 18:00 7.93 µg/m3 73.63 µg/m3 1.65 µg/m3 13.81 °C N/A 1,009.31 mbar 1.58 m/s 334.48 Deg 0.42 µg/m3
2023-01-11 17:00 7.23 µg/m3 75.43 µg/m3 1.57 µg/m3 14.72 °C N/A 1,009.09 mbar 1.71 m/s 253.75 Deg 0.48 µg/m3
2023-01-11 16:00 6.05 µg/m3 78.02 µg/m3 2.5 µg/m3 15.48 °C N/A 1,008.76 mbar 1.99 m/s 342.1 Deg 1.24 µg/m3
2023-01-11 15:00 4.95 µg/m3 79.42 µg/m3 2.03 µg/m3 15.81 °C N/A 1,008.62 mbar 2.55 m/s 260.33 Deg 0.85 µg/m3
2023-01-11 14:00 4.56 µg/m3 78.46 µg/m3 1.06 µg/m3 15.87 °C N/A 1,008.86 mbar 2.63 m/s 345.55 Deg 0.87 µg/m3
2023-01-11 13:00 4.18 µg/m3 77.04 µg/m3 1.57 µg/m3 16.14 °C N/A 1,009.32 mbar 2.51 m/s 351.45 Deg 0.86 µg/m3
2023-01-11 12:00 4.72 µg/m3 75.47 µg/m3 1.31 µg/m3 16.09 °C N/A 1,009.71 mbar 2.5 m/s 89.88 Deg 1.01 µg/m3
2023-01-11 11:00 5.07 µg/m3 72.88 µg/m3 0.33 µg/m3 15.8 °C N/A 1,010.05 mbar 2.14 m/s 333.87 Deg 1.04 µg/m3
2023-01-11 10:00 5.68 µg/m3 70.62 µg/m3 1.18 µg/m3 15.31 °C N/A 1,009.65 mbar 2.02 m/s 89.95 Deg 1.03 µg/m3
2023-01-11 09:00 9.81 µg/m3 64.81 µg/m3 1.14 µg/m3 14.2 °C N/A 1,009.22 mbar 1.58 m/s 347.22 Deg 1.34 µg/m3
2023-01-11 08:00 10.35 µg/m3 65.99 µg/m3 0.38 µg/m3 13.19 °C N/A 1,009.05 mbar 1.51 m/s 253.22 Deg 0.71 µg/m3
2023-01-11 07:00 5.88 µg/m3 71.96 µg/m3 0.12 µg/m3 13.17 °C N/A 1,008.71 mbar 1.98 m/s 345.45 Deg 0.36 µg/m3
2023-01-11 06:00 3.2 µg/m3 75.42 µg/m3 0.42 µg/m3 13.21 °C N/A 1,008.31 mbar 1.9 m/s 258.1 Deg 0.25 µg/m3
2023-01-11 05:00 2.11 µg/m3 76.41 µg/m3 1.1 µg/m3 13.11 °C N/A 1,007.98 mbar 1.61 m/s 263.73 Deg 0.24 µg/m3
2023-01-11 04:00 2.3 µg/m3 76.77 µg/m3 1.4 µg/m3 13.26 °C N/A 1,008.29 mbar 1.55 m/s 344.01 Deg 0.24 µg/m3
2023-01-11 03:00 2.37 µg/m3 76.95 µg/m3 0.76 µg/m3 13.44 °C N/A 1,008.42 mbar 1.78 m/s 346.98 Deg 0.22 µg/m3
2023-01-11 02:00 1.81 µg/m3 78.09 µg/m3 0.67 µg/m3 13.53 °C N/A 1,008.28 mbar 1.89 m/s 348.65 Deg 0.23 µg/m3
2023-01-11 01:00 1.79 µg/m3 78.84 µg/m3 1.48 µg/m3 13.41 °C N/A 1,008.27 mbar 2.07 m/s 342.77 Deg 0.23 µg/m3
2023-01-11 00:00 2.16 µg/m3 80.05 µg/m3 2.33 µg/m3 13.54 °C N/A 1,008.39 mbar 2.29 m/s 258.95 Deg 0.22 µg/m3
2023-01-10 23:00 2.24 µg/m3 80.39 µg/m3 2.5 µg/m3 13.63 °C N/A 1,008.57 mbar 2.36 m/s 339.45 Deg 0.24 µg/m3
2023-01-10 22:00 2.32 µg/m3 80.56 µg/m3 1.4 µg/m3 13.66 °C N/A 1,008.33 mbar 2.18 m/s 252.55 Deg 0.26 µg/m3
2023-01-10 21:00 2.3 µg/m3 81.05 µg/m3 1.06 µg/m3 13.65 °C N/A 1,007.85 mbar 2.38 m/s 343.53 Deg 0.25 µg/m3
2023-01-10 20:00 2.62 µg/m3 80.68 µg/m3 1.57 µg/m3 13.86 °C N/A 1,007.36 mbar 2.53 m/s 333.75 Deg 0.31 µg/m3
2023-01-10 19:00 4 µg/m3 79.74 µg/m3 3.09 µg/m3 13.43 °C N/A 1,006.83 mbar 2.24 m/s 337.25 Deg 0.39 µg/m3
2023-01-10 18:00 3.27 µg/m3 80.89 µg/m3 4.62 µg/m3 13.62 °C N/A 1,006.40 mbar 2.08 m/s 335.72 Deg 0.35 µg/m3
2023-01-10 17:00 4.43 µg/m3 73.98 µg/m3 5.05 µg/m3 13.43 °C N/A 1,005.93 mbar 1.66 m/s 333.82 Deg 0.41 µg/m3
2023-01-10 16:00 4.54 µg/m3 75.84 µg/m3 6.53 µg/m3 14.16 °C N/A 1,005.57 mbar 2.77 m/s 338.25 Deg 0.58 µg/m3
2023-01-10 15:00 4.15 µg/m3 80.03 µg/m3 6.91 µg/m3 15.56 °C N/A 1,005.07 mbar 3.04 m/s 332.89 Deg 0.74 µg/m3
2023-01-10 14:00 3.13 µg/m3 82.22 µg/m3 7.42 µg/m3 15.95 °C N/A 1,004.94 mbar 3.29 m/s 332.03 Deg 0.64 µg/m3
2023-01-10 13:00 2.96 µg/m3 80.17 µg/m3 8.1 µg/m3 16.19 °C N/A 1,005.27 mbar 3.15 m/s 319.73 Deg 0.63 µg/m3
2023-01-10 12:00 3.65 µg/m3 78.9 µg/m3 10.82 µg/m3 15.09 °C N/A 1,006.22 mbar 2.65 m/s 325.4 Deg 0.72 µg/m3
2023-01-10 11:00 4.56 µg/m3 77.19 µg/m3 10.95 µg/m3 15.13 °C N/A 1,006.69 mbar 2.89 m/s 328.63 Deg 0.79 µg/m3
2023-01-10 10:00 4.23 µg/m3 76.49 µg/m3 6.87 µg/m3 15.67 °C N/A 1,006.36 mbar 3.02 m/s 319.72 Deg 0.73 µg/m3
2023-01-10 09:00 4.13 µg/m3 78.77 µg/m3 5 µg/m3 15.36 °C N/A 1,005.98 mbar 3.2 m/s 319.13 Deg 0.68 µg/m3
2023-01-10 08:00 3.99 µg/m3 81.45 µg/m3 2.2 µg/m3 14.37 °C N/A 1,006.25 mbar 2.75 m/s 310 Deg 0.44 µg/m3
2023-01-10 07:00 2.99 µg/m3 83.1 µg/m3 0.72 µg/m3 14.85 °C N/A 1,006.22 mbar 2.78 m/s 320.57 Deg 0.32 µg/m3
2023-01-10 06:00 1.99 µg/m3 84.82 µg/m3 1.78 µg/m3 14.78 °C N/A 1,006.07 mbar 2.38 m/s 315.22 Deg 0.25 µg/m3
2023-01-10 05:00 2.08 µg/m3 81.74 µg/m3 2.92 µg/m3 14.76 °C N/A 1,006.04 mbar 2.08 m/s 316.91 Deg 0.24 µg/m3
2023-01-10 04:00 2.32 µg/m3 81.32 µg/m3 2.33 µg/m3 14.68 °C N/A 1,006.21 mbar 2.23 m/s 323.07 Deg 0.23 µg/m3
2023-01-10 03:00 2.17 µg/m3 80.42 µg/m3 0.33 µg/m3 14.95 °C N/A 1,006.52 mbar 1.93 m/s 323.25 Deg 0.24 µg/m3
2023-01-10 02:00 2.14 µg/m3 77.36 µg/m3 -0.94 µg/m3 15.09 °C N/A 1,006.14 mbar 2.19 m/s 316 Deg 0.23 µg/m3
2023-01-10 01:00 2.15 µg/m3 74.93 µg/m3 -1.19 µg/m3 14.65 °C N/A 1,006.38 mbar 2.62 m/s 305.29 Deg 0.24 µg/m3
2023-01-10 00:00 2.25 µg/m3 74.24 µg/m3 0.76 µg/m3 13.82 °C N/A 1,006.43 mbar 2.59 m/s 298.68 Deg 0.27 µg/m3
2023-01-09 23:00 2.57 µg/m3 69.18 µg/m3 5.77 µg/m3 14.74 °C N/A 1,006.56 mbar 1.55 m/s 327.77 Deg 0.27 µg/m3
2023-01-09 22:00 3.32 µg/m3 81.86 µg/m3 7.55 µg/m3 16.95 °C N/A 1,005.94 mbar 2.61 m/s 303.4 Deg 0.29 µg/m3
2023-01-09 21:00 5.72 µg/m3 83.31 µg/m3 6.02 µg/m3 16.9 °C N/A 1,005.60 mbar 2.99 m/s 280.7 Deg 0.28 µg/m3
2023-01-09 20:00 7.34 µg/m3 83.94 µg/m3 5.98 µg/m3 16.61 °C N/A 1,005.36 mbar 2.81 m/s 281.9 Deg 0.36 µg/m3
2023-01-09 19:00 10.58 µg/m3 81.96 µg/m3 7.64 µg/m3 16.24 °C N/A 1,005.19 mbar 2.19 m/s 283.33 Deg 0.46 µg/m3
2023-01-09 18:00 10.5 µg/m3 83.89 µg/m3 7.89 µg/m3 16.17 °C N/A 1,005.29 mbar 2.33 m/s 287.58 Deg 0.49 µg/m3
2023-01-09 17:00 9.78 µg/m3 83.34 µg/m3 7.34 µg/m3 16.75 °C N/A 1,005.07 mbar 2.34 m/s 290.13 Deg 0.71 µg/m3
2023-01-09 16:00 7.14 µg/m3 84.42 µg/m3 9.12 µg/m3 17.32 °C N/A 1,005.18 mbar 2.79 m/s 287.42 Deg 0.76 µg/m3
2023-01-09 15:00 6.49 µg/m3 83.84 µg/m3 10.82 µg/m3 17.5 °C N/A 1,005.33 mbar 3.2 m/s 283.47 Deg 0.96 µg/m3
2023-01-09 14:00 6.12 µg/m3 84.38 µg/m3 11.97 µg/m3 17.8 °C N/A 1,005.68 mbar 3.86 m/s 272.73 Deg 1.15 µg/m3
2023-01-09 13:00 6.35 µg/m3 83.67 µg/m3 11.54 µg/m3 17.96 °C N/A 1,006.40 mbar 4.09 m/s 264.88 Deg 1.26 µg/m3
2023-01-09 12:00 7.55 µg/m3 82.1 µg/m3 10.9 µg/m3 17.55 °C N/A 1,007.62 mbar 3.65 m/s 265.65 Deg 1.6 µg/m3
2023-01-09 11:00 7.24 µg/m3 82.23 µg/m3 10.56 µg/m3 17.2 °C N/A 1,008.50 mbar 3.68 m/s 265.28 Deg 1.15 µg/m3
2023-01-09 10:00 8.17 µg/m3 77.79 µg/m3 8.99 µg/m3 16.76 °C N/A 1,008.69 mbar 3.32 m/s 263.27 Deg 1.35 µg/m3
2023-01-09 09:00 18.23 µg/m3 63.78 µg/m3 9.46 µg/m3 15.99 °C N/A 1,008.63 mbar 1.84 m/s 258.52 Deg 2.54 µg/m3
2023-01-09 08:00 24.54 µg/m3 55.04 µg/m3 10.82 µg/m3 14.75 °C N/A 1,009.24 mbar 1.8 m/s 263.42 Deg 1.69 µg/m3
2023-01-09 07:00 20.44 µg/m3 55.78 µg/m3 9.8 µg/m3 13.98 °C N/A 1,009.32 mbar 1.4 m/s 271 Deg 0.82 µg/m3
2023-01-09 06:00 10.16 µg/m3 67.57 µg/m3 7.85 µg/m3 14.01 °C N/A 1,009.33 mbar 1.15 m/s 274.57 Deg 0.32 µg/m3
2023-01-09 05:00 5.72 µg/m3 75.67 µg/m3 6.28 µg/m3 13.86 °C N/A 1,009.49 mbar 1.38 m/s 271.83 Deg 0.25 µg/m3
2023-01-09 04:00 4.65 µg/m3 73.34 µg/m3 5.85 µg/m3 13.51 °C N/A 1,009.76 mbar 1.16 m/s 269.15 Deg 0.31 µg/m3
2023-01-09 03:00 5.03 µg/m3 69.07 µg/m3 5.85 µg/m3 13.32 °C N/A 1,010.48 mbar 0.97 m/s 267.86 Deg 0.27 µg/m3
2023-01-09 02:00 7.27 µg/m3 61.49 µg/m3 5.39 µg/m3 13.12 °C N/A 1,011.23 mbar 0.6 m/s 279.17 Deg 0.55 µg/m3
2023-01-09 01:00 4.84 µg/m3 68.43 µg/m3 6.07 µg/m3 13.46 °C N/A 1,011.68 mbar 0.62 m/s 288.61 Deg 0.27 µg/m3
2023-01-09 00:00 5.91 µg/m3 69.39 µg/m3 7.81 µg/m3 13.45 °C N/A 1,011.99 mbar 0.88 m/s 297.85 Deg 0.34 µg/m3
2023-01-08 23:00 12.71 µg/m3 49.82 µg/m3 8.95 µg/m3 12.87 °C N/A 1,012.10 mbar 0.67 m/s 290.28 Deg 0.48 µg/m3
2023-01-08 22:00 23.17 µg/m3 37.09 µg/m3 9.25 µg/m3 12.46 °C N/A 1,012.17 mbar 0.7 m/s 280.73 Deg 2.49 µg/m3
2023-01-08 21:00 36.63 µg/m3 16.08 µg/m3 7.89 µg/m3 12.22 °C N/A 1,012.21 mbar 0.45 m/s 272.31 Deg 3.59 µg/m3
2023-01-08 20:00 25.67 µg/m3 35.7 µg/m3 4.75 µg/m3 13.22 °C N/A 1,011.97 mbar 0.52 m/s 283.66 Deg 1.06 µg/m3
2023-01-08 19:00 10.5 µg/m3 62.01 µg/m3 2.58 µg/m3 14.15 °C N/A 1,011.55 mbar 0.67 m/s 299.96 Deg 0.4 µg/m3
2023-01-08 18:00 13.98 µg/m3 58.52 µg/m3 2.29 µg/m3 14.74 °C N/A 1,011.23 mbar 0.62 m/s 302.98 Deg 0.37 µg/m3
2023-01-08 17:00 8.61 µg/m3 69.82 µg/m3 1.99 µg/m3 16.23 °C N/A 1,011.06 mbar 0.76 m/s 326.77 Deg 0.45 µg/m3
2023-01-08 16:00 4.47 µg/m3 78.51 µg/m3 2.41 µg/m3 17.43 °C N/A 1,010.96 mbar 1.11 m/s 320.46 Deg 0.46 µg/m3
2023-01-08 15:00 4.15 µg/m3 76.08 µg/m3 3.43 µg/m3 18 °C N/A 1,010.87 mbar 1.22 m/s 316.13 Deg 0.52 µg/m3
2023-01-08 14:00 3.81 µg/m3 74.04 µg/m3 3.39 µg/m3 18.25 °C N/A 1,011.01 mbar 1.32 m/s 248.08 Deg 0.51 µg/m3
2023-01-08 13:00 4.92 µg/m3 70.74 µg/m3 3.01 µg/m3 17.9 °C N/A 1,011.62 mbar 1.26 m/s 331.24 Deg 0.69 µg/m3
2023-01-08 12:00 5.52 µg/m3 68.93 µg/m3 4.58 µg/m3 17.25 °C N/A 1,012.41 mbar 1.69 m/s 16.08 Deg 0.9 µg/m3
2023-01-08 11:00 6.6 µg/m3 63.9 µg/m3 5.6 µg/m3 16.91 °C N/A 1,012.70 mbar 1.44 m/s 11.95 Deg 1.06 µg/m3
2023-01-08 10:00 12.17 µg/m3 52.37 µg/m3 4.71 µg/m3 16.65 °C N/A 1,012.52 mbar 0.8 m/s 248.67 Deg 2.03 µg/m3
2023-01-08 09:00 16.23 µg/m3 38.32 µg/m3 2.97 µg/m3 14.21 °C N/A 1,012.23 mbar 0.5 m/s 292.1 Deg 2.2 µg/m3
2023-01-08 08:00 11.43 µg/m3 39.11 µg/m3 1.57 µg/m3 12.02 °C N/A 1,012.14 mbar 0.28 m/s 313.96 Deg 0.57 µg/m3
2023-01-08 07:00 11.61 µg/m3 35.73 µg/m3 1.74 µg/m3 11.24 °C N/A 1,011.91 mbar 0.29 m/s 318.18 Deg 0.41 µg/m3
2023-01-08 06:00 14.4 µg/m3 26.21 µg/m3 2.46 µg/m3 10.41 °C N/A 1,011.58 mbar 0.47 m/s 271.78 Deg 0.44 µg/m3
2023-01-08 05:00 10.47 µg/m3 30.18 µg/m3 5.85 µg/m3 10.55 °C N/A 1,011.54 mbar 0.29 m/s 242.36 Deg 0.42 µg/m3
2023-01-08 04:00 10.06 µg/m3 36.14 µg/m3 7.51 µg/m3 10.89 °C N/A 1,011.67 mbar 0.59 m/s 265.9 Deg 0.34 µg/m3
2023-01-08 03:00 8.43 µg/m3 34.09 µg/m3 6.36 µg/m3 11.58 °C N/A 1,011.73 mbar 0.35 m/s 284 Deg 0.39 µg/m3
2023-01-08 02:00 13.77 µg/m3 37.7 µg/m3 7.17 µg/m3 12.29 °C N/A 1,011.79 mbar 0.48 m/s 291.57 Deg 0.57 µg/m3
2023-01-08 01:00 16.52 µg/m3 29.52 µg/m3 11.58 µg/m3 12.02 °C N/A 1,012.18 mbar 0.49 m/s 294.56 Deg 0.34 µg/m3
2023-01-08 00:00 21.46 µg/m3 25.48 µg/m3 14.68 µg/m3 11.69 °C N/A 1,012.49 mbar 0.39 m/s 299.24 Deg 0.53 µg/m3
2023-01-07 23:00 26.21 µg/m3 25.55 µg/m3 13.96 µg/m3 11.89 °C N/A 1,012.62 mbar 0.57 m/s 291.84 Deg 0.56 µg/m3
2023-01-07 22:00 31.4 µg/m3 18.99 µg/m3 15.91 µg/m3 11.79 °C N/A 1,012.58 mbar 0.57 m/s 288.35 Deg 0.8 µg/m3
2023-01-07 21:00 47.47 µg/m3 7.79 µg/m3 22.88 µg/m3 11.89 °C N/A 1,012.49 mbar 0.42 m/s 289.56 Deg 5.07 µg/m3
2023-01-07 20:00 35.52 µg/m3 17.89 µg/m3 23.98 µg/m3 12.6 °C N/A 1,012.24 mbar 0.39 m/s 295.89 Deg 2.7 µg/m3
2023-01-07 19:00 34.45 µg/m3 24.33 µg/m3 12.48 µg/m3 13.5 °C N/A 1,011.89 mbar 0.44 m/s 296.28 Deg 1.03 µg/m3
2023-01-07 18:00 26.22 µg/m3 46.47 µg/m3 3.52 µg/m3 14.87 °C N/A 1,011.42 mbar 0.52 m/s 183.78 Deg 1.37 µg/m3
2023-01-07 17:00 8.42 µg/m3 74.05 µg/m3 2.46 µg/m3 15.98 °C N/A 1,011.08 mbar 0.83 m/s 33.26 Deg 0.39 µg/m3
2023-01-07 16:00 5.71 µg/m3 78.19 µg/m3 2.84 µg/m3 16.64 °C N/A 1,010.88 mbar 1.09 m/s 96.42 Deg 0.64 µg/m3
2023-01-07 15:00 7.82 µg/m3 77.29 µg/m3 4.03 µg/m3 16.65 °C N/A 1,010.81 mbar 1.25 m/s 231.47 Deg 1.35 µg/m3
2023-01-07 14:00 7.89 µg/m3 75.91 µg/m3 4.96 µg/m3 16.5 °C N/A 1,011.03 mbar 1.47 m/s 305.15 Deg 1.12 µg/m3
2023-01-07 13:00 9.38 µg/m3 71.29 µg/m3 5.81 µg/m3 16.78 °C N/A 1,011.53 mbar 1.69 m/s 190.43 Deg 1.84 µg/m3
2023-01-07 12:00 12.59 µg/m3 65.78 µg/m3 8.19 µg/m3 16.39 °C N/A 1,012.25 mbar 1.79 m/s 209.27 Deg 3.05 µg/m3
2023-01-07 11:00 20.43 µg/m3 52.66 µg/m3 10.14 µg/m3 15.53 °C N/A 1,012.83 mbar 1.02 m/s 302.59 Deg 3.9 µg/m3
2023-01-07 10:00 28.36 µg/m3 43.2 µg/m3 10.9 µg/m3 15.19 °C N/A 1,012.64 mbar 0.96 m/s 37.68 Deg 5.28 µg/m3
2023-01-07 09:00 49.29 µg/m3 11.09 µg/m3 10.01 µg/m3 13.6 °C N/A 1,012.39 mbar 0.68 m/s 28.99 Deg 34.76 µg/m3
2023-01-07 08:00 45.05 µg/m3 12.01 µg/m3 7.47 µg/m3 12.72 °C N/A 1,012.22 mbar 0.65 m/s 26.09 Deg 10.5 µg/m3
2023-01-07 07:00 31 µg/m3 20.59 µg/m3 6.28 µg/m3 12.08 °C N/A 1,012.13 mbar 0.62 m/s 97.56 Deg 2.29 µg/m3
2023-01-07 06:00 25.11 µg/m3 11.57 µg/m3 6.79 µg/m3 10.98 °C N/A 1,012.00 mbar 0.37 m/s 304.62 Deg 3.03 µg/m3
2023-01-07 05:00 11.33 µg/m3 25.65 µg/m3 8.57 µg/m3 11.58 °C N/A 1,011.82 mbar 0.41 m/s 307.16 Deg 0.39 µg/m3
2023-01-07 04:00 9.67 µg/m3 46.76 µg/m3 9.59 µg/m3 13.01 °C N/A 1,012.10 mbar 0.71 m/s 30.27 Deg 0.36 µg/m3
2023-01-07 03:00 12 µg/m3 42.81 µg/m3 7.42 µg/m3 12.94 °C N/A 1,012.30 mbar 0.59 m/s 25.71 Deg 0.29 µg/m3
2023-01-07 02:00 13.33 µg/m3 39.81 µg/m3 6.91 µg/m3 12.4 °C N/A 1,012.34 mbar 0.44 m/s 259.11 Deg 0.31 µg/m3
2023-01-07 01:00 23.26 µg/m3 33.07 µg/m3 9.08 µg/m3 12.38 °C N/A 1,012.55 mbar 0.43 m/s 349.7 Deg 0.42 µg/m3
2023-01-07 00:00 19.11 µg/m3 34.95 µg/m3 -0.94 µg/m3 12.26 °C N/A 1,012.95 mbar 0.37 m/s 323.14 Deg 0.47 µg/m3
2023-01-06 23:00 26.09 µg/m3 20.36 µg/m3 -63.43 µg/m3 11.79 °C N/A 1,013.17 mbar 0.41 m/s 302.53 Deg 0.7 µg/m3
2023-01-06 22:00 28.49 µg/m3 24.79 µg/m3 -47.72 µg/m3 12.3 °C N/A 1,013.00 mbar 0.44 m/s 301.55 Deg 2.23 µg/m3
2023-01-06 21:00 42.1 µg/m3 13.22 µg/m3 19.52 µg/m3 12.47 °C N/A 1,013.00 mbar 0.46 m/s 297.97 Deg 4.74 µg/m3
2023-01-06 20:00 52.56 µg/m3 1.88 µg/m3 18.33 µg/m3 12.67 °C N/A 1,012.74 mbar 0.37 m/s 292.59 Deg 21.29 µg/m3
2023-01-06 19:00 53.65 µg/m3 1.8 µg/m3 13.92 µg/m3 13.35 °C N/A 1,012.39 mbar 0.38 m/s 295.1 Deg 12.61 µg/m3
2023-01-06 18:00 42.32 µg/m3 26.22 µg/m3 8.87 µg/m3 14.7 °C N/A 1,011.95 mbar 0.44 m/s 176.3 Deg 4.38 µg/m3
2023-01-06 17:00 16.65 µg/m3 65.38 µg/m3 7.08 µg/m3 15.84 °C N/A 1,011.78 mbar 0.81 m/s 113.09 Deg 0.71 µg/m3
2023-01-06 16:00 16.23 µg/m3 66.95 µg/m3 6.28 µg/m3 16.19 °C N/A 1,011.73 mbar 1.03 m/s 25.63 Deg 1.56 µg/m3
2023-01-06 15:00 11.78 µg/m3 74.2 µg/m3 7.21 µg/m3 16.41 °C N/A 1,011.57 mbar 1.13 m/s 38.6 Deg 1.14 µg/m3
2023-01-06 14:00 11.88 µg/m3 72.36 µg/m3 7.93 µg/m3 17.19 °C N/A 1,011.55 mbar 1.27 m/s 229.76 Deg 1.94 µg/m3
2023-01-06 13:00 10.14 µg/m3 71.82 µg/m3 3.43 µg/m3 17.66 °C N/A 1,011.93 mbar 1.43 m/s 266.25 Deg 1.78 µg/m3
2023-01-06 12:00 10.19 µg/m3 68.06 µg/m3 -0.22 µg/m3 17.84 °C N/A 1,012.65 mbar 0.87 m/s 204.21 Deg 1.86 µg/m3
2023-01-06 11:00 18.69 µg/m3 53.83 µg/m3 -0.22 µg/m3 17.27 °C N/A 1,013.24 mbar 0.84 m/s 159.72 Deg 4.08 µg/m3
2023-01-06 10:00 44.14 µg/m3 22.84 µg/m3 -0.22 µg/m3 16.68 °C N/A 1,013.25 mbar 0.56 m/s 104.93 Deg 13.28 µg/m3
2023-01-06 09:00 67.13 µg/m3 5.39 µg/m3 24.49 µg/m3 13.87 °C N/A 1,012.99 mbar 0.33 m/s 223.19 Deg 127.03 µg/m3
2023-01-06 08:00 56.13 µg/m3 1.84 µg/m3 13.96 µg/m3 10.93 °C N/A 1,012.85 mbar 0.39 m/s 299.16 Deg 119.98 µg/m3
2023-01-06 07:00 42.69 µg/m3 1.14 µg/m3 9.46 µg/m3 10.62 °C N/A 1,012.58 mbar 0.42 m/s 300.28 Deg 22.17 µg/m3
2023-01-06 06:00 36.7 µg/m3 6.25 µg/m3 8.44 µg/m3 10.91 °C N/A 1,012.35 mbar 0.53 m/s 296.92 Deg 5.45 µg/m3
2023-01-06 05:00 13.58 µg/m3 32.69 µg/m3 8.19 µg/m3 11.04 °C N/A 1,012.15 mbar 0.53 m/s 290.35 Deg 0.36 µg/m3
2023-01-06 04:00 6.31 µg/m3 38.45 µg/m3 10.14 µg/m3 11.06 °C N/A 1,012.46 mbar 0.48 m/s 284.27 Deg 0.26 µg/m3
2023-01-06 03:00 7.65 µg/m3 38.1 µg/m3 8.7 µg/m3 11.02 °C N/A 1,012.72 mbar 0.5 m/s 283.94 Deg 0.34 µg/m3
2023-01-06 02:00 10.32 µg/m3 37.11 µg/m3 9.97 µg/m3 11.29 °C N/A 1,012.82 mbar 0.43 m/s 294.47 Deg 0.28 µg/m3
2023-01-06 01:00 11.88 µg/m3 44.17 µg/m3 8.44 µg/m3 11.74 °C N/A 1,013.04 mbar 0.37 m/s 298.9 Deg 0.36 µg/m3
2023-01-06 00:00 11.19 µg/m3 55.16 µg/m3 9.89 µg/m3 12.25 °C N/A 1,013.36 mbar 0.33 m/s 304.69 Deg 0.31 µg/m3
2023-01-05 23:00 13.81 µg/m3 50.3 µg/m3 10.39 µg/m3 12.27 °C N/A 1,013.54 mbar 0.43 m/s 294.02 Deg 0.47 µg/m3
2023-01-05 22:00 20.16 µg/m3 43.07 µg/m3 12.26 µg/m3 12.42 °C N/A 1,013.44 mbar 0.37 m/s 287.92 Deg 0.69 µg/m3
2023-01-05 21:00 36.25 µg/m3 25.94 µg/m3 15.06 µg/m3 12.69 °C N/A 1,013.23 mbar 0.45 m/s 291.32 Deg 1.79 µg/m3
2023-01-05 20:00 61.7 µg/m3 6.73 µg/m3 12.86 µg/m3 13 °C N/A 1,013.13 mbar 0.52 m/s 286.61 Deg 12.17 µg/m3
2023-01-05 19:00 49.49 µg/m3 25.35 µg/m3 9.55 µg/m3 13.89 °C N/A 1,012.93 mbar 0.57 m/s 287 Deg 2.54 µg/m3
2023-01-05 18:00 29.42 µg/m3 52.1 µg/m3 6.66 µg/m3 14.66 °C N/A 1,012.65 mbar 0.67 m/s 295.98 Deg 1.81 µg/m3
2023-01-05 17:00 10.63 µg/m3 78.85 µg/m3 6.32 µg/m3 16.22 °C N/A 1,012.53 mbar 0.61 m/s 311.07 Deg 0.62 µg/m3
2023-01-05 16:00 5.08 µg/m3 88.03 µg/m3 5.73 µg/m3 17.44 °C N/A 1,012.47 mbar 0.98 m/s 311.14 Deg 0.43 µg/m3
2023-01-05 15:00 4.99 µg/m3 88.22 µg/m3 6.4 µg/m3 17.96 °C N/A 1,012.42 mbar 1.11 m/s 312.86 Deg 0.59 µg/m3
2023-01-05 14:00 5.02 µg/m3 86.71 µg/m3 9.29 µg/m3 18.2 °C N/A 1,012.63 mbar 1.25 m/s 315.49 Deg 0.58 µg/m3
2023-01-05 13:00 6.65 µg/m3 82.61 µg/m3 12.18 µg/m3 18.26 °C N/A 1,013.28 mbar 1.16 m/s 311.25 Deg 1.06 µg/m3
2023-01-05 12:00 4.68 µg/m3 82.42 µg/m3 17.19 µg/m3 17.68 °C N/A 1,014.11 mbar 1.11 m/s 327.78 Deg 0.6 µg/m3
2023-01-05 11:00 6.82 µg/m3 78.02 µg/m3 13.45 µg/m3 17.1 °C N/A 1,014.66 mbar 0.9 m/s 241.98 Deg 1.09 µg/m3
2023-01-05 10:00 18.69 µg/m3 63.1 µg/m3 31.11 µg/m3 16.5 °C N/A 1,014.83 mbar 0.59 m/s 314.77 Deg 3.82 µg/m3
2023-01-05 09:00 63.57 µg/m3 5.81 µg/m3 13.71 µg/m3 13.94 °C N/A 1,014.86 mbar 0.55 m/s 290.78 Deg 68.47 µg/m3
2023-01-05 08:00 59.1 µg/m3 3.48 µg/m3 9.8 µg/m3 11.72 °C N/A 1,015.03 mbar 0.33 m/s 295.27 Deg 35.77 µg/m3
2023-01-05 07:00 32.5 µg/m3 25.51 µg/m3 9.89 µg/m3 11.71 °C N/A 1,014.82 mbar 0.28 m/s 307.85 Deg 3.43 µg/m3
2023-01-05 06:00 27.69 µg/m3 20.55 µg/m3 8.61 µg/m3 11.46 °C N/A 1,014.42 mbar 0.26 m/s 280.71 Deg 0.83 µg/m3
2023-01-05 05:00 11.37 µg/m3 50.37 µg/m3 9.04 µg/m3 12.61 °C N/A 1,014.52 mbar 0.36 m/s 306.69 Deg 0.3 µg/m3
2023-01-05 04:00 7.6 µg/m3 58.57 µg/m3 8.95 µg/m3 12.97 °C N/A 1,014.91 mbar 0.4 m/s 325.66 Deg 0.31 µg/m3
2023-01-05 03:00 8.83 µg/m3 51.43 µg/m3 11.41 µg/m3 12.86 °C N/A 1,015.25 mbar 0.42 m/s 306.42 Deg 0.3 µg/m3
2023-01-05 02:00 16.6 µg/m3 28.72 µg/m3 12.18 µg/m3 12.37 °C N/A 1,015.52 mbar 0.4 m/s 302.6 Deg 0.31 µg/m3
2023-01-05 01:00 19.96 µg/m3 22.32 µg/m3 12.86 µg/m3 12.35 °C N/A 1,015.79 mbar 0.45 m/s 291.72 Deg 0.33 µg/m3
2023-01-05 00:00 20.14 µg/m3 22.27 µg/m3 14.89 µg/m3 12.6 °C N/A 1,016.21 mbar 0.45 m/s 287.51 Deg 0.43 µg/m3
2023-01-04 23:00 24.28 µg/m3 22.48 µg/m3 15.74 µg/m3 12.9 °C N/A 1,016.49 mbar 0.47 m/s 285.17 Deg 0.66 µg/m3
2023-01-04 22:00 28.79 µg/m3 20.59 µg/m3 15.66 µg/m3 13.17 °C N/A 1,016.46 mbar 0.57 m/s 282.49 Deg 1.1 µg/m3
2023-01-04 21:00 45.53 µg/m3 3.65 µg/m3 16.25 µg/m3 13.58 °C N/A 1,016.33 mbar 0.49 m/s 281.77 Deg 5.71 µg/m3
2023-01-04 20:00 53.23 µg/m3 2.18 µg/m3 13.28 µg/m3 14.27 °C N/A 1,016.18 mbar 0.56 m/s 291.42 Deg 13.35 µg/m3
2023-01-04 19:00 52.15 µg/m3 7.88 µg/m3 9.8 µg/m3 14.97 °C N/A 1,015.94 mbar 0.4 m/s 270.34 Deg 20.62 µg/m3
2023-01-04 18:00 22.42 µg/m3 51.89 µg/m3 7.42 µg/m3 16.29 °C N/A 1,015.77 mbar 0.43 m/s 246.19 Deg 0.53 µg/m3
2023-01-04 17:00 8.35 µg/m3 74.02 µg/m3 6.07 µg/m3 17.58 °C N/A 1,015.61 mbar 0.98 m/s 322.72 Deg 0.59 µg/m3
2023-01-04 16:00 5.99 µg/m3 76.66 µg/m3 7.59 µg/m3 18.47 °C N/A 1,015.59 mbar 0.93 m/s 319.87 Deg 0.54 µg/m3
2023-01-04 15:00 7.02 µg/m3 77.24 µg/m3 7.08 µg/m3 18.32 °C N/A 1,015.66 mbar 1.39 m/s 302.27 Deg 1.03 µg/m3
2023-01-04 14:00 6.04 µg/m3 76.5 µg/m3 7.85 µg/m3 18.71 °C N/A 1,015.89 mbar 1.17 m/s 324.53 Deg 0.83 µg/m3
2023-01-04 13:00 8.69 µg/m3 71.66 µg/m3 9.29 µg/m3 18.91 °C N/A 1,016.40 mbar 1.17 m/s 80.33 Deg 1.51 µg/m3
2023-01-04 12:00 9.75 µg/m3 67.82 µg/m3 -0.22 µg/m3 18.17 °C N/A 1,017.18 mbar 0.99 m/s 241.37 Deg 1.55 µg/m3
2023-01-04 11:00 12.59 µg/m3 61.78 µg/m3 -0.22 µg/m3 17.88 °C N/A 1,017.72 mbar 0.84 m/s 186.08 Deg 2.01 µg/m3
2023-01-04 10:00 31.3 µg/m3 34.88 µg/m3 -0.22 µg/m3 16.63 °C N/A 1,017.89 mbar 0.54 m/s 225.25 Deg 9.28 µg/m3
2023-01-04 09:00 35.72 µg/m3 -149.83 µg/m3 µg/m3 15.42 °C N/A 1,017.64 mbar 0.35 m/s 320.79 Deg 5.83 µg/m3
2023-01-04 08:00 39.25 µg/m3 14.65 µg/m3 7.55 µg/m3 14.6 °C N/A 1,017.46 mbar 0.36 m/s 293.33 Deg 3.8 µg/m3
2023-01-04 07:00 18.77 µg/m3 37.33 µg/m3 6.3 µg/m3 15.1 °C N/A 1,017.04 mbar 0.55 m/s 336.14 Deg 0.56 µg/m3
2023-01-04 06:00 6.8 µg/m3 47.01 µg/m3 5.39 µg/m3 15.55 °C N/A 1,016.86 mbar 0.37 m/s 329.58 Deg 0.37 µg/m3
2023-01-04 05:00 6.03 µg/m3 58.29 µg/m3 6.4 µg/m3 15.94 °C N/A 1,016.76 mbar 0.68 m/s 251.21 Deg 0.31 µg/m3
2023-01-04 04:00 4.9 µg/m3 70.57 µg/m3 5.87 µg/m3 16.28 °C N/A 1,016.87 mbar 1.29 m/s 289.08 Deg 0.31 µg/m3
2023-01-04 03:00 4.96 µg/m3 64.97 µg/m3 5.17 µg/m3 15.89 °C N/A 1,017.24 mbar 0.7 m/s 288.49 Deg 0.27 µg/m3
2023-01-04 02:00 5.28 µg/m3 56.94 µg/m3 5.17 µg/m3 15.26 °C N/A 1,017.47 mbar 0.79 m/s 276.92 Deg 0.33 µg/m3
2023-01-04 01:00 11.44 µg/m3 34.36 µg/m3 5.92 µg/m3 14.97 °C N/A 1,017.79 mbar 0.45 m/s 277.38 Deg 0.32 µg/m3
2023-01-04 00:00 15.46 µg/m3 30.36 µg/m3 6.21 µg/m3 15.02 °C N/A 1,018.07 mbar 0.33 m/s 291.79 Deg 0.37 µg/m3
2023-01-03 23:00 20.87 µg/m3 29.15 µg/m3 6.43 µg/m3 15.29 °C N/A 1,018.27 mbar 0.42 m/s 277.99 Deg 0.73 µg/m3

It is to be noted that the data is provisional and subject to quality assurance procedures. For validated data kindly refer your request to contact.air@era.org.mt